| time (UTC) | temp F | wind direction | speed knots | gust knots | rain 1hr in | rain 24hr in | rain mn in | humidity % | barometer mb |
| 20260906131004 | 71 | 120 | 2.6 | 5.2 | 0.00 | 0.00 | 0.00 | 91 | 1020.6 |
| 20260906130902 | 71 | 91 | 5.2 | 5.2 | 0.00 | 0.00 | 0.00 | 91 | 1020.6 |
| 20260906130801 | 70 | 97 | 0.0 | 4.3 | 0.00 | 0.00 | 0.00 | 91 | 1020.6 |
| 20260906130700 | 70 | 105 | 0.9 | 4.3 | 0.00 | 0.00 | 0.00 | 91 | 1020.6 |
| 20260906130601 | 70 | 105 | 0.0 | 4.3 | 0.00 | 0.00 | 0.00 | 91 | 1020.6 |
| 20260906130501 | 70 | 152 | 1.7 | 4.3 | 0.00 | 0.00 | 0.00 | 91 | 1020.6 |
| 20260906130401 | 70 | 90 | 0.9 | 4.3 | 0.00 | 0.00 | 0.00 | 91 | 1020.6 |
| 20260906130301 | 70 | 117 | 2.6 | 4.3 | 0.00 | 0.00 | 0.00 | 92 | 1020.6 |
| 20260906130202 | 70 | 79 | 0.9 | 5.2 | 0.00 | 0.00 | 0.00 | 92 | 1020.6 |
| 20260906130104 | 70 | 90 | 1.7 | 5.2 | 0.00 | 0.00 | 0.00 | 92 | 1020.6 |
| 20260906130004 | 70 | 112 | 1.7 | 5.2 | 0.00 | 0.00 | 0.00 | 92 | 1020.6 |
| 20260906125904 | 70 | 101 | 1.7 | 5.2 | 0.00 | 0.00 | 0.00 | 92 | 1020.6 |
| 20260906125801 | 70 | 108 | 0.0 | 5.2 | 0.00 | 0.00 | 0.00 | 92 | 1020.5 |
| 20260906125701 | 70 | 44 | 0.0 | 5.2 | 0.00 | 0.00 | 0.00 | 92 | 1020.6 |
| 20260906125601 | 69 | 79 | 1.7 | 5.2 | 0.00 | 0.00 | 0.00 | 92 | 1020.5 |
| 20260906125504 | 69 | 104 | 0.9 | 5.2 | 0.00 | 0.00 | 0.00 | 92 | 1020.6 |
| 20260906125103 | 69 | 82 | 0.9 | 4.3 | 0.00 | 0.00 | 0.00 | 92 | 1020.5 |
| 20260906125001 | 69 | 60 | 3.5 | 4.3 | 0.00 | 0.00 | 0.00 | 92 | 1020.5 |
| 20260906124901 | 69 | 98 | 0.9 | 4.3 | 0.00 | 0.00 | 0.00 | 92 | 1020.5 |
| 20260906124805 | 69 | 131 | 0.9 | 4.3 | 0.00 | 0.00 | 0.00 | 93 | 1020.5 |
| 20260906124701 | 69 | 110 | 0.0 | 4.3 | 0.00 | 0.00 | 0.00 | 93 | 1020.5 |
| 20260906124604 | 69 | 118 | 0.0 | 4.3 | 0.00 | 0.00 | 0.00 | 93 | 1020.5 |
| 20260906124501 | 69 | 357 | 0.0 | 4.3 | 0.00 | 0.00 | 0.00 | 93 | 1020.5 |
| 20260906124403 | 69 | 85 | 0.9 | 4.3 | 0.00 | 0.00 | 0.00 | 93 | 1020.5 |
| 20260906124302 | 69 | 86 | 0.9 | 4.3 | 0.00 | 0.00 | 0.00 | 93 | 1020.5 |
| 20260906124203 | 69 | 78 | 1.7 | 3.5 | 0.00 | 0.00 | 0.00 | 93 | 1020.4 |
| 20260906124106 | 69 | 67 | 0.9 | 3.5 | 0.00 | 0.00 | 0.00 | 93 | 1020.5 |
| 20260906124002 | 69 | 100 | 1.7 | 3.5 | 0.00 | 0.00 | 0.00 | 93 | 1020.4 |
| 20260906123903 | 69 | 86 | 0.0 | 3.5 | 0.00 | 0.00 | 0.00 | 93 | 1020.4 |
| 20260906123804 | 69 | 115 | 0.9 | 3.5 | 0.00 | 0.00 | 0.00 | 93 | 1020.4 |
| 20260906123701 | 69 | 81 | 1.7 | 3.5 | 0.00 | 0.00 | 0.00 | 94 | 1020.5 |
| 20260906123603 | 68 | 77 | 0.0 | 3.5 | 0.00 | 0.00 | 0.00 | 94 | 1020.5 |
| 20260906123504 | 68 | 54 | 0.0 | 3.5 | 0.00 | 0.00 | 0.00 | 94 | 1020.5 |
| 20260906123400 | 68 | 54 | 0.9 | 3.5 | 0.00 | 0.00 | 0.00 | 94 | 1020.5 |
| 20260906123302 | 68 | 48 | 0.0 | 3.5 | 0.00 | 0.00 | 0.00 | 94 | 1020.5 |
| 20260906123202 | 68 | 30 | 0.0 | 3.5 | 0.00 | 0.00 | 0.00 | 94 | 1020.5 |
| 20260906123101 | 68 | 356 | 1.7 | 1.7 | 0.00 | 0.00 | 0.00 | 94 | 1020.5 |
| 20260906123004 | 68 | 25 | 0.0 | 1.7 | 0.00 | 0.00 | 0.00 | 94 | 1020.5 |
| 20260906122904 | 68 | 198 | 0.0 | 1.7 | 0.00 | 0.00 | 0.00 | 94 | 1020.5 |
| 20260906122804 | 68 | 197 | 0.0 | 1.7 | 0.00 | 0.00 | 0.00 | 94 | 1020.5 |
| 20260906122605 | 68 | 117 | 0.0 | 1.7 | 0.00 | 0.00 | 0.00 | 94 | 1020.6 |
| 20260906122501 | 67 | 116 | 0.0 | 1.7 | 0.00 | 0.00 | 0.00 | 94 | 1020.5 |
| 20260906122404 | 67 | 18 | 0.0 | 0.9 | 0.00 | 0.00 | 0.00 | 94 | 1020.6 |
| 20260906122101 | 67 | 183 | 0.0 | 1.7 | 0.00 | 0.00 | 0.00 | 94 | 1020.6 |
| 20260906122004 | 67 | 183 | 0.0 | 1.7 | 0.00 | 0.00 | 0.00 | 94 | 1020.6 |
| 20260906121904 | 67 | 206 | 0.0 | 1.7 | 0.00 | 0.00 | 0.00 | 94 | 1020.6 |
| 20260906121800 | 67 | 205 | 0.0 | 1.7 | 0.00 | 0.00 | 0.00 | 94 | 1020.5 |
| 20260906121704 | 67 | 334 | 0.0 | 1.7 | 0.00 | 0.00 | 0.00 | 94 | 1020.4 |
| 20260906121504 | 67 | 338 | 0.0 | 1.7 | 0.00 | 0.00 | 0.00 | 94 | 1020.4 |
| 20260906121204 | 67 | 49 | 0.0 | 0.9 | 0.00 | 0.00 | 0.00 | 94 | 1020.3 |
| 20260906121103 | 67 | 48 | 0.0 | 0.9 | 0.00 | 0.00 | 0.00 | 94 | 1020.3 |
| 20260906120904 | 67 | 49 | 0.0 | 0.9 | 0.00 | 0.00 | 0.00 | 94 | 1020.2 |
| 20260906120801 | 67 | 35 | 0.0 | 1.7 | 0.00 | 0.00 | 0.00 | 94 | 1020.2 |
| 20260906120702 | 67 | 36 | 0.9 | 1.7 | 0.00 | 0.00 | 0.00 | 94 | 1020.1 |
| 20260906120501 | 67 | 30 | 0.9 | 2.6 | 0.00 | 0.00 | 0.00 | 94 | 1020.1 |
| 20260906120401 | 67 | 80 | 0.0 | 2.6 | 0.00 | 0.00 | 0.00 | 94 | 1020.1 |
| 20260906120305 | 67 | 58 | 0.9 | 2.6 | 0.00 | 0.00 | 0.00 | 94 | 1020.1 |
| 20260906120201 | 67 | 8 | 0.9 | 2.6 | 0.00 | 0.00 | 0.00 | 94 | 1020.1 |
| 20260906120104 | 67 | 14 | 0.0 | 2.6 | 0.00 | 0.00 | 0.00 | 94 | 1020.1 |
| 20260906115901 | 67 | 353 | 0.0 | 2.6 | 0.00 | 0.00 | 0.00 | 94 | 1020.0 |
| 20260906115702 | 67 | 203 | 0.0 | 1.7 | 0.00 | 0.00 | 0.00 | 94 | 1020.1 |
| 20260906115400 | 67 | 185 | 0.0 | 1.7 | 0.00 | 0.00 | 0.00 | 94 | 1020.0 |
| 20260906115301 | 67 | 188 | 0.0 | 1.7 | 0.00 | 0.00 | 0.00 | 94 | 1020.0 |
| 20260906115202 | 67 | 188 | 0.0 | 1.7 | 0.00 | 0.00 | 0.00 | 94 | 1020.0 |
| 20260906115101 | 67 | 199 | 0.0 | 1.7 | 0.00 | 0.00 | 0.00 | 94 | 1019.9 |
| 20260906115001 | 67 | 200 | 0.0 | 1.7 | 0.00 | 0.00 | 0.00 | 94 | 1019.9 |
| 20260906114902 | 66 | 200 | 0.0 | 1.7 | 0.00 | 0.00 | 0.00 | 94 | 1019.9 |
| 20260906114801 | 66 | 200 | 0.0 | 1.7 | 0.00 | 0.00 | 0.00 | 94 | 1019.8 |
| 20260906114600 | 66 | 357 | 0.0 | 1.7 | 0.00 | 0.00 | 0.00 | 94 | 1019.8 |
| 20260906114502 | 66 | 38 | 0.0 | 1.7 | 0.00 | 0.00 | 0.00 | 94 | 1019.8 |
| 20260906114402 | 66 | 38 | 0.0 | 1.7 | 0.00 | 0.00 | 0.00 | 94 | 1019.8 |
| 20260906114301 | 66 | 356 | 0.0 | 1.7 | 0.00 | 0.00 | 0.00 | 94 | 1019.8 |
| 20260906114202 | 66 | 94 | 0.0 | 1.7 | 0.00 | 0.00 | 0.00 | 94 | 1019.7 |
| 20260906114101 | 66 | 117 | 0.0 | 1.7 | 0.00 | 0.00 | 0.00 | 94 | 1019.7 |
| 20260906114001 | 66 | 122 | 0.0 | 1.7 | 0.00 | 0.00 | 0.00 | 94 | 1019.7 |
| 20260906113901 | 66 | 120 | 0.0 | 1.7 | 0.00 | 0.00 | 0.00 | 94 | 1019.7 |
| 20260906113801 | 66 | 13 | 0.0 | 1.7 | 0.00 | 0.00 | 0.00 | 94 | 1019.7 |
| 20260906113659 | 66 | 325 | 0.0 | 1.7 | 0.00 | 0.00 | 0.00 | 94 | 1019.7 |
| 20260906113501 | 66 | 335 | 0.0 | 1.7 | 0.00 | 0.00 | 0.00 | 94 | 1019.7 |
| 20260906113201 | 66 | 352 | 0.0 | 1.7 | 0.00 | 0.00 | 0.00 | 94 | 1019.6 |
| 20260906113102 | 66 | 29 | 0.0 | 1.7 | 0.00 | 0.00 | 0.00 | 94 | 1019.6 |
| 20260906113000 | 66 | 29 | 0.0 | 1.7 | 0.00 | 0.00 | 0.00 | 94 | 1019.7 |
| 20260906112904 | 66 | 30 | 0.0 | 1.7 | 0.00 | 0.00 | 0.00 | 94 | 1019.6 |
| 20260906112802 | 66 | 30 | 0.0 | 1.7 | 0.00 | 0.00 | 0.00 | 94 | 1019.7 |
| 20260906112604 | 66 | 34 | 0.0 | 2.6 | 0.00 | 0.00 | 0.00 | 94 | 1019.5 |
| 20260906112501 | 66 | 15 | 0.9 | 2.6 | 0.00 | 0.00 | 0.00 | 94 | 1019.4 |
| 20260906112402 | 66 | 1 | 0.9 | 2.6 | 0.00 | 0.00 | 0.00 | 94 | 1019.4 |
| 20260906112301 | 66 | 15 | 0.0 | 2.6 | 0.00 | 0.00 | 0.00 | 94 | 1019.4 |
| 20260906112200 | 66 | 15 | 0.0 | 2.6 | 0.00 | 0.00 | 0.00 | 94 | 1019.4 |
| 20260906112103 | 66 | 16 | 0.0 | 2.6 | 0.00 | 0.00 | 0.00 | 94 | 1019.4 |
| 20260906112000 | 66 | 28 | 1.7 | 2.6 | 0.00 | 0.00 | 0.00 | 94 | 1019.4 |
| 20260906111900 | 66 | 274 | 0.0 | 2.6 | 0.00 | 0.00 | 0.00 | 94 | 1019.4 |
| 20260906111800 | 66 | 29 | 0.9 | 2.6 | 0.00 | 0.00 | 0.00 | 94 | 1019.3 |
| 20260906111700 | 66 | 18 | 0.0 | 2.6 | 0.00 | 0.00 | 0.00 | 94 | 1019.4 |
| 20260906111600 | 66 | 108 | 0.0 | 2.6 | 0.00 | 0.00 | 0.00 | 94 | 1019.3 |
| 20260906111403 | 66 | 328 | 0.0 | 2.6 | 0.00 | 0.00 | 0.00 | 94 | 1019.4 |
| 20260906111300 | 66 | 1 | 1.7 | 1.7 | 0.00 | 0.00 | 0.00 | 94 | 1019.4 |
| 20260906111201 | 66 | 6 | 0.9 | 1.7 | 0.00 | 0.00 | 0.00 | 94 | 1019.3 |
| 20260906111100 | 66 | 9 | 0.0 | 1.7 | 0.00 | 0.00 | 0.00 | 94 | 1019.3 |
| 20260906111001 | 66 | 9 | 0.0 | 1.7 | 0.00 | 0.00 | 0.00 | 94 | 1019.2 |
| 20260906110901 | 66 | 82 | 0.0 | 1.7 | 0.00 | 0.00 | 0.00 | 94 | 1019.3 |
| 20260906110702 | 66 | 81 | 0.9 | 1.7 | 0.00 | 0.00 | 0.00 | 94 | 1019.3 |
| 20260906110502 | 66 | 359 | 0.0 | 0.9 | 0.00 | 0.00 | 0.00 | 94 | 1019.3 |
| 20260906110400 | 66 | 360 | 0.0 | 0.9 | 0.00 | 0.00 | 0.00 | 94 | 1019.2 |
| 20260906110301 | 66 | 356 | 0.0 | 0.9 | 0.00 | 0.00 | 0.00 | 94 | 1019.3 |
| 20260906110202 | 66 | 356 | 0.0 | 0.9 | 0.00 | 0.00 | 0.00 | 94 | 1019.2 |
| 20260906110006 | 66 | 32 | 0.0 | 1.7 | 0.00 | 0.00 | 0.00 | 94 | 1019.1 |
| 20260906105903 | 66 | 32 | 0.0 | 1.7 | 0.00 | 0.00 | 0.00 | 94 | 1019.3 |
| 20260906105802 | 66 | 32 | 0.0 | 1.7 | 0.00 | 0.00 | 0.00 | 94 | 1019.2 |
| 20260906105601 | 66 | 32 | 0.0 | 2.6 | 0.00 | 0.00 | 0.00 | 94 | 1019.4 |
| 20260906105459 | 66 | 32 | 0.0 | 2.6 | 0.00 | 0.00 | 0.00 | 94 | 1019.4 |
| 20260906105401 | 66 | 39 | 0.9 | 2.6 | 0.00 | 0.00 | 0.00 | 94 | 1019.4 |
| 20260906105301 | 66 | 51 | 0.9 | 2.6 | 0.00 | 0.00 | 0.00 | 94 | 1019.4 |
| 20260906105201 | 66 | 59 | 0.9 | 2.6 | 0.00 | 0.00 | 0.00 | 94 | 1019.4 |
| 20260906105101 | 66 | 19 | 1.7 | 2.6 | 0.00 | 0.00 | 0.00 | 94 | 1019.2 |
| 20260906105000 | 66 | 16 | 0.0 | 2.6 | 0.00 | 0.00 | 0.00 | 94 | 1019.3 |
| 20260906104902 | 66 | 15 | 1.7 | 1.7 | 0.00 | 0.00 | 0.00 | 94 | 1019.3 |
| 20260906104801 | 66 | 328 | 0.9 | 1.7 | 0.00 | 0.00 | 0.00 | 94 | 1019.2 |
| 20260906104701 | 66 | 27 | 0.9 | 1.7 | 0.00 | 0.00 | 0.00 | 94 | 1019.1 |
| 20260906104603 | 66 | 20 | 0.0 | 1.7 | 0.00 | 0.00 | 0.00 | 94 | 1019.0 |
| 20260906104501 | 66 | 20 | 0.0 | 1.7 | 0.00 | 0.00 | 0.00 | 94 | 1018.9 |
| 20260906104402 | 66 | 20 | 0.0 | 1.7 | 0.00 | 0.00 | 0.00 | 94 | 1019.0 |
| 20260906104300 | 66 | 21 | 0.0 | 1.7 | 0.00 | 0.00 | 0.00 | 94 | 1018.9 |
| 20260906104203 | 66 | 21 | 0.0 | 1.7 | 0.00 | 0.00 | 0.00 | 94 | 1019.0 |
| 20260906104106 | 66 | 20 | 0.0 | 1.7 | 0.00 | 0.00 | 0.00 | 94 | 1019.0 |
| 20260906103902 | 66 | 15 | 0.0 | 1.7 | 0.00 | 0.00 | 0.00 | 94 | 1019.0 |
| 20260906103801 | 66 | 28 | 0.0 | 1.7 | 0.00 | 0.00 | 0.00 | 94 | 1019.1 |
| 20260906103501 | 66 | 312 | 0.0 | 1.7 | 0.00 | 0.00 | 0.00 | 94 | 1019.1 |
| 20260906103401 | 66 | 37 | 0.0 | 1.7 | 0.00 | 0.00 | 0.00 | 94 | 1019.0 |
| 20260906103302 | 66 | 35 | 1.7 | 1.7 | 0.00 | 0.00 | 0.00 | 94 | 1019.0 |
| 20260906103201 | 66 | 60 | 0.0 | 1.7 | 0.00 | 0.00 | 0.00 | 94 | 1019.0 |
| 20260906103101 | 66 | 60 | 0.0 | 1.7 | 0.00 | 0.00 | 0.00 | 94 | 1019.0 |
| 20260906103001 | 66 | 60 | 0.9 | 1.7 | 0.00 | 0.00 | 0.00 | 94 | 1019.1 |
| 20260906102900 | 66 | 34 | 0.0 | 1.7 | 0.00 | 0.00 | 0.00 | 94 | 1018.9 |
| 20260906102801 | 66 | 34 | 0.9 | 1.7 | 0.00 | 0.00 | 0.00 | 94 | 1018.9 |
| 20260906102700 | 66 | 34 | 0.0 | 1.7 | 0.00 | 0.00 | 0.00 | 94 | 1018.9 |
| 20260906102601 | 66 | 338 | 0.0 | 1.7 | 0.00 | 0.00 | 0.00 | 94 | 1018.9 |
| 20260906102502 | 66 | 57 | 1.7 | 1.7 | 0.00 | 0.00 | 0.00 | 94 | 1018.9 |
| 20260906102400 | 66 | 115 | 0.0 | 1.7 | 0.00 | 0.00 | 0.00 | 94 | 1018.8 |
| 20260906102305 | 66 | 115 | 0.0 | 1.7 | 0.00 | 0.00 | 0.00 | 94 | 1018.9 |
| 20260906102203 | 66 | 4 | 0.0 | 1.7 | 0.00 | 0.00 | 0.00 | 94 | 1018.8 |
| 20260906102101 | 66 | 4 | 0.0 | 1.7 | 0.00 | 0.00 | 0.00 | 94 | 1018.9 |
| 20260906102001 | 66 | 3 | 0.0 | 1.7 | 0.00 | 0.00 | 0.00 | 94 | 1019.0 |
| 20260906101903 | 66 | 5 | 0.0 | 1.7 | 0.00 | 0.00 | 0.00 | 94 | 1018.9 |
| 20260906101801 | 66 | 18 | 0.0 | 1.7 | 0.00 | 0.00 | 0.00 | 94 | 1018.9 |
| 20260906101704 | 66 | 18 | 0.9 | 1.7 | 0.00 | 0.00 | 0.00 | 94 | 1018.9 |
| 20260906101600 | 66 | 354 | 0.9 | 0.9 | 0.00 | 0.00 | 0.00 | 94 | 1018.9 |
| 20260906101501 | 66 | 354 | 0.0 | 0.9 | 0.00 | 0.00 | 0.00 | 94 | 1018.9 |
| 20260906101401 | 66 | 354 | 0.0 | 0.9 | 0.00 | 0.00 | 0.00 | 94 | 1018.9 |
| 20260906101301 | 66 | 205 | 0.0 | 0.9 | 0.00 | 0.00 | 0.00 | 94 | 1018.9 |
| 20260906101201 | 66 | 205 | 0.0 | 0.9 | 0.00 | 0.00 | 0.00 | 94 | 1018.9 |
| 20260906101101 | 66 | 205 | 0.0 | 1.7 | 0.00 | 0.00 | 0.00 | 94 | 1018.9 |
| 20260906101002 | 66 | 105 | 0.9 | 1.7 | 0.00 | 0.00 | 0.00 | 94 | 1018.9 |
| 20260906100901 | 66 | 86 | 0.0 | 1.7 | 0.00 | 0.00 | 0.00 | 94 | 1018.9 |
| 20260906100801 | 66 | 89 | 0.0 | 1.7 | 0.00 | 0.00 | 0.00 | 94 | 1018.9 |
| 20260906100701 | 66 | 89 | 0.0 | 1.7 | 0.00 | 0.00 | 0.00 | 94 | 1018.9 |
| 20260906100602 | 66 | 350 | 0.0 | 1.7 | 0.00 | 0.00 | 0.00 | 94 | 1018.9 |
| 20260906100502 | 66 | 1 | 0.0 | 1.7 | 0.00 | 0.00 | 0.00 | 94 | 1018.9 |
| 20260906100302 | 66 | 3 | 0.0 | 2.6 | 0.00 | 0.00 | 0.00 | 94 | 1018.8 |
| 20260906100203 | 66 | 103 | 0.0 | 2.6 | 0.00 | 0.00 | 0.00 | 94 | 1018.8 |
| 20260906100101 | 66 | 110 | 1.7 | 2.6 | 0.00 | 0.00 | 0.00 | 94 | 1018.8 |
| 20260906100000 | 66 | 347 | 1.7 | 2.6 | 0.00 | 0.00 | 0.00 | 94 | 1018.8 |
| 20260906095659 | 66 | 40 | 0.0 | 2.6 | 0.00 | 0.00 | 0.00 | 94 | 1018.8 |
| 20260906095602 | 66 | 357 | 0.9 | 2.6 | 0.00 | 0.00 | 0.00 | 94 | 1018.7 |
| 20260906095459 | 66 | 31 | 0.0 | 1.7 | 0.00 | 0.00 | 0.00 | 94 | 1018.8 |
| 20260906095400 | 66 | 31 | 1.7 | 1.7 | 0.00 | 0.00 | 0.00 | 94 | 1018.7 |
| 20260906095202 | 67 | 19 | 0.0 | 1.7 | 0.00 | 0.00 | 0.00 | 94 | 1018.7 |
| 20260906095101 | 67 | 18 | 0.0 | 1.7 | 0.00 | 0.00 | 0.00 | 94 | 1018.7 |
| 20260906095001 | 67 | 18 | 0.0 | 1.7 | 0.00 | 0.00 | 0.00 | 94 | 1018.7 |
| 20260906094801 | 67 | 5 | 0.0 | 1.7 | 0.00 | 0.00 | 0.00 | 94 | 1018.6 |
| 20260906094700 | 67 | 5 | 0.0 | 1.7 | 0.00 | 0.00 | 0.00 | 94 | 1018.7 |
| 20260906094601 | 67 | 5 | 0.9 | 1.7 | 0.00 | 0.00 | 0.00 | 94 | 1018.7 |
| 20260906094503 | 67 | 23 | 0.0 | 1.7 | 0.00 | 0.00 | 0.00 | 94 | 1018.6 |
| 20260906094401 | 67 | 22 | 0.0 | 1.7 | 0.00 | 0.00 | 0.00 | 94 | 1018.7 |
| 20260906094301 | 67 | 13 | 0.0 | 1.7 | 0.00 | 0.00 | 0.00 | 94 | 1018.6 |
| 20260906094204 | 67 | 306 | 0.0 | 1.7 | 0.00 | 0.00 | 0.00 | 94 | 1018.6 |
| 20260906094103 | 67 | 143 | 0.9 | 1.7 | 0.00 | 0.00 | 0.00 | 94 | 1018.7 |
| 20260906094001 | 67 | 145 | 0.0 | 2.6 | 0.00 | 0.00 | 0.00 | 94 | 1018.7 |
| 20260906093900 | 67 | 102 | 1.7 | 2.6 | 0.00 | 0.00 | 0.00 | 94 | 1018.6 |
| 20260906093802 | 67 | 349 | 0.9 | 2.6 | 0.00 | 0.00 | 0.00 | 94 | 1018.6 |
| 20260906093702 | 67 | 69 | 0.0 | 2.6 | 0.00 | 0.00 | 0.00 | 94 | 1018.6 |
| 20260906093602 | 67 | 3 | 0.0 | 2.6 | 0.00 | 0.00 | 0.00 | 94 | 1018.6 |
| 20260906093402 | 67 | 13 | 0.0 | 2.6 | 0.00 | 0.00 | 0.00 | 94 | 1018.6 |
| 20260906093301 | 67 | 14 | 0.0 | 2.6 | 0.00 | 0.00 | 0.00 | 94 | 1018.7 |
| 20260906093201 | 67 | 9 | 1.7 | 2.6 | 0.00 | 0.00 | 0.00 | 94 | 1018.6 |
| 20260906093103 | 67 | 348 | 0.0 | 1.7 | 0.00 | 0.00 | 0.00 | 94 | 1018.6 |
| 20260906093001 | 67 | 346 | 0.9 | 1.7 | 0.00 | 0.00 | 0.00 | 94 | 1018.6 |
| 20260906092900 | 67 | 346 | 0.0 | 1.7 | 0.00 | 0.00 | 0.00 | 94 | 1018.7 |
| 20260906092802 | 67 | 347 | 0.9 | 1.7 | 0.00 | 0.00 | 0.00 | 94 | 1018.7 |
| 20260906092701 | 67 | 345 | 0.0 | 1.7 | 0.00 | 0.00 | 0.00 | 94 | 1018.6 |
| 20260906092602 | 67 | 345 | 0.0 | 1.7 | 0.00 | 0.00 | 0.00 | 94 | 1018.7 |
| 20260906092501 | 67 | 347 | 0.0 | 1.7 | 0.00 | 0.00 | 0.00 | 94 | 1018.7 |
| 20260906092401 | 67 | 28 | 0.0 | 0.9 | 0.00 | 0.00 | 0.00 | 94 | 1018.6 |
| 20260906092201 | 67 | 356 | 0.0 | 2.6 | 0.00 | 0.00 | 0.00 | 94 | 1018.6 |
| 20260906092101 | 67 | 114 | 0.0 | 2.6 | 0.00 | 0.00 | 0.00 | 94 | 1018.7 |
| 20260906092003 | 67 | 115 | 0.0 | 2.6 | 0.00 | 0.00 | 0.00 | 94 | 1018.7 |
| 20260906091900 | 67 | 9 | 0.9 | 2.6 | 0.00 | 0.00 | 0.00 | 94 | 1018.7 |
| 20260906091701 | 67 | 90 | 0.0 | 2.6 | 0.00 | 0.00 | 0.00 | 94 | 1018.6 |
| 20260906091601 | 67 | 93 | 0.0 | 2.6 | 0.00 | 0.00 | 0.00 | 94 | 1018.6 |
| 20260906091502 | 67 | 98 | 0.0 | 2.6 | 0.00 | 0.00 | 0.00 | 94 | 1018.5 |
| 20260906091400 | 67 | 333 | 0.0 | 2.6 | 0.00 | 0.00 | 0.00 | 94 | 1018.6 |
| 20260906091103 | 67 | 359 | 0.0 | 1.7 | 0.00 | 0.00 | 0.00 | 94 | 1018.6 |
| 20260906091001 | 67 | 360 | 0.0 | 1.7 | 0.00 | 0.00 | 0.00 | 94 | 1018.6 |
| 20260906090900 | 67 | 1 | 0.0 | 1.7 | 0.00 | 0.00 | 0.00 | 94 | 1018.5 |
| 20260906090801 | 67 | 347 | 0.9 | 1.7 | 0.00 | 0.00 | 0.00 | 94 | 1018.5 |
| 20260906090602 | 67 | 15 | 0.0 | 1.7 | 0.00 | 0.00 | 0.00 | 94 | 1018.5 |
| 20260906090501 | 67 | 16 | 0.0 | 1.7 | 0.00 | 0.00 | 0.00 | 94 | 1018.6 |
| 20260906090300 | 67 | 354 | 0.0 | 1.7 | 0.00 | 0.00 | 0.00 | 94 | 1018.6 |
| 20260906090201 | 67 | 1 | 0.0 | 1.7 | 0.00 | 0.00 | 0.00 | 94 | 1018.6 |
| 20260906090001 | 67 | 354 | 0.0 | 1.7 | 0.00 | 0.00 | 0.00 | 93 | 1018.6 |
| 20260906085901 | 67 | 14 | 0.0 | 1.7 | 0.00 | 0.00 | 0.00 | 94 | 1018.6 |
| 20260906085800 | 67 | 15 | 0.9 | 1.7 | 0.00 | 0.00 | 0.00 | 93 | 1018.6 |
| 20260906085600 | 67 | 123 | 0.0 | 0.9 | 0.00 | 0.00 | 0.00 | 93 | 1018.6 |
| 20260906085203 | 67 | 23 | 0.0 | 0.9 | 0.00 | 0.00 | 0.00 | 93 | 1018.7 |
| 20260906085000 | 67 | 22 | 0.0 | 0.9 | 0.00 | 0.00 | 0.00 | 93 | 1018.7 |
| 20260906084900 | 67 | 22 | 0.0 | 0.9 | 0.00 | 0.00 | 0.00 | 93 | 1018.6 |
| 20260906084801 | 67 | 22 | 0.0 | 0.9 | 0.00 | 0.00 | 0.00 | 93 | 1018.6 |
| 20260906084700 | 67 | 23 | 0.0 | 0.9 | 0.00 | 0.00 | 0.00 | 93 | 1018.6 |
| 20260906084600 | 67 | 20 | 0.0 | 0.9 | 0.00 | 0.00 | 0.00 | 93 | 1018.6 |
| 20260906084400 | 67 | 21 | 0.0 | 0.9 | 0.00 | 0.00 | 0.00 | 93 | 1018.6 |
| 20260906084201 | 67 | 20 | 0.0 | 0.9 | 0.00 | 0.00 | 0.00 | 93 | 1018.6 |
| 20260906084101 | 68 | 20 | 0.0 | 0.9 | 0.00 | 0.00 | 0.00 | 93 | 1018.6 |
| 20260906084000 | 67 | 4 | 0.0 | 0.9 | 0.00 | 0.00 | 0.00 | 93 | 1018.6 |
| 20260906083900 | 68 | 4 | 0.9 | 1.7 | 0.00 | 0.00 | 0.00 | 93 | 1018.6 |
| 20260906083800 | 67 | 106 | 0.0 | 2.6 | 0.00 | 0.00 | 0.00 | 93 | 1018.5 |
| 20260906083700 | 68 | 80 | 0.9 | 2.6 | 0.00 | 0.00 | 0.00 | 93 | 1018.5 |
| 20260906083459 | 68 | 86 | 0.0 | 2.6 | 0.00 | 0.00 | 0.00 | 93 | 1018.5 |
| 20260906083400 | 68 | 22 | 0.0 | 2.6 | 0.00 | 0.00 | 0.00 | 93 | 1018.6 |
| 20260906083259 | 68 | 22 | 0.0 | 2.6 | 0.00 | 0.00 | 0.00 | 93 | 1018.6 |
| 20260906083201 | 68 | 22 | 0.0 | 2.6 | 0.00 | 0.00 | 0.00 | 93 | 1018.5 |
| 20260906083059 | 68 | 22 | 0.0 | 2.6 | 0.00 | 0.00 | 0.00 | 93 | 1018.6 |
| 20260906082959 | 68 | 23 | 0.9 | 2.6 | 0.00 | 0.00 | 0.00 | 93 | 1018.6 |
| 20260906082900 | 68 | 23 | 0.0 | 1.7 | 0.00 | 0.00 | 0.00 | 93 | 1018.5 |
| 20260906082759 | 68 | 23 | 0.0 | 1.7 | 0.00 | 0.00 | 0.00 | 93 | 1018.5 |
| 20260906082500 | 68 | 4 | 0.0 | 1.7 | 0.00 | 0.00 | 0.00 | 93 | 1018.6 |
| 20260906082400 | 68 | 15 | 0.0 | 1.7 | 0.00 | 0.00 | 0.00 | 93 | 1018.5 |
| 20260906082259 | 68 | 29 | 0.0 | 1.7 | 0.00 | 0.00 | 0.00 | 93 | 1018.6 |
| 20260906082159 | 68 | 29 | 0.0 | 1.7 | 0.00 | 0.00 | 0.00 | 93 | 1018.6 |
| 20260906081900 | 68 | 29 | 0.0 | 1.7 | 0.00 | 0.00 | 0.00 | 93 | 1018.6 |
| 20260906081759 | 68 | 29 | 0.0 | 1.7 | 0.00 | 0.00 | 0.00 | 93 | 1018.7 |
| 20260906081700 | 68 | 29 | 0.9 | 1.7 | 0.00 | 0.00 | 0.00 | 93 | 1018.5 |
| 20260906081559 | 68 | 30 | 1.7 | 1.7 | 0.00 | 0.00 | 0.00 | 93 | 1018.6 |
| 20260906081501 | 68 | 66 | 0.0 | 0.9 | 0.00 | 0.00 | 0.00 | 93 | 1018.5 |
| 20260906081358 | 68 | 66 | 0.0 | 0.9 | 0.00 | 0.00 | 0.00 | 93 | 1018.6 |
| 20260906081259 | 68 | 66 | 0.0 | 0.9 | 0.00 | 0.00 | 0.00 | 93 | 1018.6 |
| 20260906081159 | 68 | 66 | 0.9 | 0.9 | 0.00 | 0.00 | 0.00 | 93 | 1018.6 |
| 20260906081100 | 68 | 67 | 0.0 | 1.7 | 0.00 | 0.00 | 0.00 | 93 | 1018.7 |
| 20260906081000 | 68 | 66 | 0.0 | 2.6 | 0.00 | 0.00 | 0.00 | 93 | 1018.7 |
| 20260906080900 | 68 | 66 | 0.0 | 2.6 | 0.00 | 0.00 | 0.00 | 93 | 1018.7 |
| 20260906080700 | 68 | 71 | 0.0 | 2.6 | 0.00 | 0.00 | 0.00 | 93 | 1018.7 |
| 20260906080559 | 68 | 71 | 0.0 | 2.6 | 0.00 | 0.00 | 0.00 | 93 | 1018.7 |
| 20260906080500 | 68 | 71 | 0.9 | 2.6 | 0.00 | 0.00 | 0.00 | 93 | 1018.7 |
| 20260906080359 | 68 | 70 | 0.0 | 2.6 | 0.00 | 0.00 | 0.00 | 93 | 1018.7 |
| 20260906080300 | 68 | 72 | 0.0 | 2.6 | 0.00 | 0.00 | 0.00 | 93 | 1018.6 |
| 20260906080159 | 68 | 71 | 1.7 | 2.6 | 0.00 | 0.00 | 0.00 | 93 | 1018.6 |
| 20260906080004 | 68 | 93 | 0.0 | 0.9 | 0.00 | 0.00 | 0.00 | 93 | 1018.6 |
| 20260906075901 | 68 | 41 | 0.0 | 0.9 | 0.00 | 0.00 | 0.00 | 93 | 1018.7 |
| 20260906075800 | 68 | 41 | 0.0 | 0.9 | 0.00 | 0.00 | 0.00 | 93 | 1018.8 |
| 20260906075700 | 68 | 41 | 0.9 | 0.9 | 0.00 | 0.00 | 0.00 | 93 | 1018.7 |
| 20260906075600 | 68 | 134 | 0.0 | 0.9 | 0.00 | 0.00 | 0.00 | 93 | 1018.8 |
| 20260906075501 | 68 | 135 | 0.9 | 0.9 | 0.00 | 0.00 | 0.00 | 93 | 1018.7 |
| 20260906075403 | 68 | 200 | 0.0 | 0.9 | 0.00 | 0.00 | 0.00 | 93 | 1018.8 |
| 20260906075301 | 68 | 198 | 0.0 | 0.9 | 0.00 | 0.00 | 0.00 | 93 | 1018.7 |
| 20260906075103 | 68 | 198 | 0.0 | 0.9 | 0.00 | 0.00 | 0.00 | 93 | 1018.7 |
| 20260906075001 | 68 | 156 | 0.0 | 0.9 | 0.00 | 0.00 | 0.00 | 93 | 1018.7 |
| 20260906074901 | 68 | 224 | 0.0 | 0.9 | 0.00 | 0.00 | 0.00 | 93 | 1018.8 |
| 20260906074800 | 68 | 335 | 0.9 | 0.9 | 0.00 | 0.00 | 0.00 | 93 | 1018.9 |
| 20260906074701 | 68 | 333 | 0.9 | 0.9 | 0.00 | 0.00 | 0.00 | 93 | 1018.9 |
| 20260906074600 | 68 | 5 | 0.0 | 0.9 | 0.00 | 0.00 | 0.00 | 93 | 1018.9 |
| 20260906074500 | 68 | 5 | 0.0 | 0.9 | 0.00 | 0.00 | 0.00 | 93 | 1018.9 |
| 20260906074401 | 68 | 5 | 0.0 | 0.9 | 0.00 | 0.00 | 0.00 | 93 | 1018.9 |
| 20260906074300 | 68 | 8 | 0.0 | 0.9 | 0.00 | 0.00 | 0.00 | 93 | 1018.9 |
| 20260906074201 | 68 | 8 | 0.0 | 0.9 | 0.00 | 0.00 | 0.00 | 93 | 1018.9 |
| 20260906074101 | 68 | 67 | 0.0 | 0.9 | 0.00 | 0.00 | 0.00 | 93 | 1018.8 |
| 20260906074002 | 68 | 66 | 0.0 | 0.9 | 0.00 | 0.00 | 0.00 | 93 | 1018.8 |
| 20260906073900 | 68 | 66 | 0.0 | 0.9 | 0.00 | 0.00 | 0.00 | 93 | 1018.8 |
| 20260906073801 | 68 | 67 | 0.0 | 0.9 | 0.00 | 0.00 | 0.00 | 93 | 1018.7 |
| 20260906073501 | 68 | 67 | 0.0 | 0.9 | 0.00 | 0.00 | 0.00 | 93 | 1018.8 |
| 20260906073400 | 68 | 66 | 0.0 | 0.9 | 0.00 | 0.00 | 0.00 | 93 | 1018.7 |
| 20260906073202 | 68 | 67 | 0.0 | 0.9 | 0.00 | 0.00 | 0.00 | 93 | 1018.7 |
| 20260906073100 | 68 | 68 | 0.0 | 0.9 | 0.00 | 0.00 | 0.00 | 93 | 1018.7 |
| 20260906072901 | 68 | 68 | 0.0 | 0.9 | 0.00 | 0.00 | 0.00 | 93 | 1018.7 |
| 20260906072801 | 68 | 68 | 0.0 | 0.9 | 0.00 | 0.00 | 0.00 | 93 | 1018.7 |
| 20260906072700 | 68 | 68 | 0.0 | 0.9 | 0.00 | 0.00 | 0.00 | 92 | 1018.8 |
| 20260906072600 | 68 | 68 | 0.0 | 0.9 | 0.00 | 0.00 | 0.00 | 92 | 1018.8 |
| 20260906072502 | 68 | 68 | 0.0 | 0.9 | 0.00 | 0.00 | 0.00 | 92 | 1018.8 |
| 20260906072305 | 68 | 68 | 0.0 | 0.9 | 0.00 | 0.00 | 0.00 | 92 | 1018.9 |
| 20260906072102 | 68 | 67 | 0.0 | 0.9 | 0.00 | 0.00 | 0.00 | 92 | 1018.9 |
| 20260906071902 | 68 | 67 | 0.0 | 0.9 | 0.00 | 0.00 | 0.00 | 92 | 1018.8 |
| 20260906071801 | 68 | 66 | 0.0 | 0.9 | 0.00 | 0.00 | 0.00 | 92 | 1018.8 |
| 20260906071701 | 69 | 66 | 0.0 | 0.9 | 0.00 | 0.00 | 0.00 | 92 | 1018.8 |
| 20260906071500 | 69 | 66 | 0.0 | 0.9 | 0.00 | 0.00 | 0.00 | 92 | 1018.9 |
| 20260906071400 | 69 | 67 | 0.0 | 0.9 | 0.00 | 0.00 | 0.00 | 92 | 1018.9 |
| 20260906071301 | 69 | 66 | 0.0 | 1.7 | 0.00 | 0.00 | 0.00 | 92 | 1018.8 |
| 20260906071201 | 69 | 66 | 0.0 | 2.6 | 0.00 | 0.00 | 0.00 | 92 | 1018.9 |
| 20260906071101 | 69 | 66 | 0.9 | 2.6 | 0.00 | 0.00 | 0.00 | 92 | 1018.9 |
| 20260906071002 | 69 | 103 | 0.0 | 2.6 | 0.00 | 0.00 | 0.00 | 92 | 1018.9 |
| 20260906070901 | 69 | 103 | 0.0 | 2.6 | 0.00 | 0.00 | 0.00 | 92 | 1018.9 |
| 20260906070700 | 69 | 103 | 0.0 | 2.6 | 0.00 | 0.00 | 0.00 | 92 | 1018.9 |
| 20260906070600 | 69 | 103 | 0.0 | 2.6 | 0.00 | 0.00 | 0.00 | 92 | 1018.9 |
| 20260906070500 | 69 | 103 | 0.0 | 2.6 | 0.00 | 0.00 | 0.00 | 92 | 1018.9 |
| 20260906070401 | 69 | 103 | 0.0 | 2.6 | 0.00 | 0.00 | 0.00 | 92 | 1019.0 |
| 20260906070301 | 69 | 118 | 0.0 | 1.7 | 0.00 | 0.00 | 0.00 | 92 | 1018.9 |
| 20260906065900 | 69 | 84 | 0.0 | 3.5 | 0.00 | 0.00 | 0.00 | 91 | 1019.0 |
| 20260906065701 | 69 | 137 | 0.0 | 3.5 | 0.00 | 0.00 | 0.00 | 91 | 1018.9 |
| 20260906065601 | 69 | 111 | 0.0 | 3.5 | 0.00 | 0.00 | 0.00 | 91 | 1018.9 |
| 20260906065459 | 69 | 111 | 0.0 | 3.5 | 0.00 | 0.00 | 0.00 | 91 | 1018.9 |
| 20260906065301 | 69 | 108 | 0.0 | 3.5 | 0.00 | 0.00 | 0.00 | 91 | 1018.9 |
| 20260906065200 | 69 | 89 | 0.0 | 3.5 | 0.00 | 0.00 | 0.00 | 91 | 1019.0 |
| 20260906065101 | 69 | 122 | 0.9 | 2.6 | 0.00 | 0.00 | 0.00 | 91 | 1019.0 |
| 20260906065001 | 69 | 88 | 0.9 | 2.6 | 0.00 | 0.00 | 0.00 | 91 | 1018.9 |
| 20260906064902 | 69 | 105 | 0.0 | 2.6 | 0.00 | 0.00 | 0.00 | 91 | 1018.9 |
| 20260906064801 | 69 | 91 | 0.0 | 2.6 | 0.00 | 0.00 | 0.00 | 91 | 1018.9 |
| 20260906064700 | 69 | 97 | 0.0 | 2.6 | 0.00 | 0.00 | 0.00 | 91 | 1018.9 |
| 20260906064500 | 69 | 109 | 2.6 | 2.6 | 0.00 | 0.00 | 0.00 | 91 | 1018.9 |
| 20260906064300 | 70 | 101 | 0.0 | 2.6 | 0.00 | 0.00 | 0.00 | 91 | 1018.9 |
| 20260906064202 | 70 | 77 | 1.7 | 2.6 | 0.00 | 0.00 | 0.00 | 91 | 1018.9 |
| 20260906064100 | 70 | 94 | 0.0 | 2.6 | 0.00 | 0.00 | 0.00 | 91 | 1018.9 |
| 20260906064000 | 70 | 94 | 0.0 | 2.6 | 0.00 | 0.00 | 0.00 | 91 | 1018.9 |
| 20260906063900 | 70 | 99 | 1.7 | 2.6 | 0.00 | 0.00 | 0.00 | 91 | 1018.9 |
| 20260906063802 | 70 | 89 | 0.9 | 2.6 | 0.00 | 0.00 | 0.00 | 91 | 1018.9 |
| 20260906063700 | 70 | 100 | 1.7 | 3.5 | 0.00 | 0.00 | 0.00 | 91 | 1018.9 |
| 20260906063601 | 70 | 100 | 0.9 | 3.5 | 0.00 | 0.00 | 0.00 | 91 | 1018.9 |
| 20260906063500 | 70 | 164 | 0.0 | 3.5 | 0.00 | 0.00 | 0.00 | 91 | 1018.8 |
| 20260906063100 | 70 | 104 | 0.9 | 3.5 | 0.00 | 0.00 | 0.00 | 91 | 1018.8 |
| 20260906062900 | 70 | 98 | 3.5 | 3.5 | 0.00 | 0.00 | 0.00 | 91 | 1018.8 |
| 20260906062802 | 70 | 113 | 0.9 | 2.6 | 0.00 | 0.00 | 0.00 | 91 | 1018.8 |
| 20260906062701 | 70 | 102 | 1.7 | 2.6 | 0.00 | 0.00 | 0.00 | 91 | 1018.9 |
| 20260906062601 | 70 | 101 | 0.0 | 1.7 | 0.00 | 0.00 | 0.00 | 91 | 1018.9 |
| 20260906062500 | 70 | 88 | 0.0 | 1.7 | 0.00 | 0.00 | 0.00 | 91 | 1018.9 |
| 20260906062402 | 70 | 91 | 0.0 | 1.7 | 0.00 | 0.00 | 0.00 | 91 | 1018.8 |
| 20260906062300 | 70 | 107 | 0.9 | 1.7 | 0.00 | 0.00 | 0.00 | 91 | 1018.9 |
| 20260906062201 | 70 | 117 | 0.0 | 1.7 | 0.00 | 0.00 | 0.00 | 91 | 1018.9 |
| 20260906062101 | 70 | 117 | 0.0 | 1.7 | 0.00 | 0.00 | 0.00 | 91 | 1018.9 |
| 20260906062000 | 70 | 83 | 0.9 | 1.7 | 0.00 | 0.00 | 0.00 | 91 | 1018.9 |
| 20260906061801 | 70 | 82 | 0.0 | 1.7 | 0.00 | 0.00 | 0.00 | 91 | 1018.9 |
| 20260906061702 | 70 | 82 | 0.0 | 1.7 | 0.00 | 0.00 | 0.00 | 91 | 1018.9 |
| 20260906061500 | 70 | 82 | 1.7 | 1.7 | 0.00 | 0.00 | 0.00 | 91 | 1018.9 |
| 20260906061300 | 70 | 61 | 0.0 | 0.9 | 0.00 | 0.00 | 0.00 | 91 | 1018.9 |
| 20260906061202 | 70 | 80 | 0.0 | 0.9 | 0.00 | 0.00 | 0.00 | 91 | 1019.0 |
| 20260906061102 | 70 | 233 | 0.0 | 0.9 | 0.00 | 0.00 | 0.00 | 91 | 1018.9 |
| 20260906060901 | 70 | 132 | 0.0 | 0.9 | 0.00 | 0.00 | 0.00 | 91 | 1018.8 |
| 20260906060700 | 70 | 30 | 0.0 | 0.9 | 0.00 | 0.00 | 0.00 | 91 | 1018.9 |
| 20260906060603 | 70 | 30 | 0.0 | 0.9 | 0.00 | 0.00 | 0.00 | 91 | 1018.9 |
| 20260906060501 | 70 | 86 | 0.0 | 0.9 | 0.00 | 0.00 | 0.00 | 91 | 1018.9 |
| 20260906060402 | 70 | 83 | 0.0 | 0.9 | 0.00 | 0.00 | 0.00 | 91 | 1018.9 |
| 20260906060200 | 70 | 113 | 0.0 | 0.9 | 0.00 | 0.00 | 0.00 | 91 | 1018.9 |
| 20260906060059 | 70 | 113 | 0.0 | 0.9 | 0.00 | 0.00 | 0.00 | 91 | 1018.9 |
| 20260906055902 | 70 | 190 | 0.0 | 0.9 | 0.00 | 0.00 | 0.00 | 90 | 1018.9 |
| 20260906055802 | 70 | 190 | 0.0 | 0.9 | 0.00 | 0.00 | 0.00 | 90 | 1018.9 |
| 20260906055703 | 70 | 103 | 0.0 | 0.9 | 0.00 | 0.00 | 0.00 | 90 | 1018.9 |
| 20260906055602 | 70 | 103 | 0.0 | 0.9 | 0.00 | 0.00 | 0.00 | 90 | 1018.9 |
| 20260906055502 | 70 | 104 | 0.0 | 0.9 | 0.00 | 0.00 | 0.00 | 90 | 1018.9 |
| 20260906055306 | 70 | 104 | 0.0 | 0.9 | 0.00 | 0.00 | 0.00 | 90 | 1018.8 |
| 20260906055202 | 70 | 105 | 0.0 | 0.9 | 0.00 | 0.00 | 0.00 | 90 | 1018.8 |
| 20260906055102 | 70 | 120 | 0.0 | 0.9 | 0.00 | 0.00 | 0.00 | 90 | 1018.8 |
| 20260906055003 | 70 | 87 | 0.0 | 1.7 | 0.00 | 0.00 | 0.00 | 90 | 1018.8 |
| 20260906054902 | 70 | 89 | 0.0 | 1.7 | 0.00 | 0.00 | 0.00 | 90 | 1018.7 |
| 20260906054802 | 70 | 84 | 0.0 | 1.7 | 0.00 | 0.00 | 0.00 | 90 | 1018.8 |
| 20260906054602 | 70 | 70 | 0.0 | 1.7 | 0.00 | 0.00 | 0.00 | 90 | 1018.7 |
| 20260906054402 | 70 | 94 | 0.0 | 1.7 | 0.00 | 0.00 | 0.00 | 90 | 1018.7 |
| 20260906054303 | 70 | 94 | 0.0 | 1.7 | 0.00 | 0.00 | 0.00 | 90 | 1018.6 |
| 20260906054203 | 70 | 121 | 0.0 | 1.7 | 0.00 | 0.00 | 0.00 | 90 | 1018.6 |
| 20260906054102 | 70 | 220 | 0.0 | 1.7 | 0.00 | 0.00 | 0.00 | 90 | 1018.6 |
| 20260906054002 | 70 | 33 | 0.0 | 2.6 | 0.00 | 0.00 | 0.00 | 90 | 1018.6 |
| 20260906053802 | 70 | 99 | 1.7 | 2.6 | 0.00 | 0.00 | 0.00 | 90 | 1018.5 |
| 20260906053702 | 70 | 156 | 0.0 | 2.6 | 0.00 | 0.00 | 0.00 | 90 | 1018.6 |
| 20260906053603 | 70 | 205 | 0.0 | 2.6 | 0.00 | 0.00 | 0.00 | 90 | 1018.6 |
| 20260906053502 | 71 | 162 | 0.0 | 2.6 | 0.00 | 0.00 | 0.00 | 90 | 1018.6 |
| 20260906053402 | 70 | 163 | 0.0 | 2.6 | 0.00 | 0.00 | 0.00 | 90 | 1018.6 |
| 20260906053302 | 70 | 41 | 0.0 | 2.6 | 0.00 | 0.00 | 0.00 | 90 | 1018.6 |
| 20260906053202 | 71 | 150 | 0.0 | 2.6 | 0.00 | 0.00 | 0.00 | 90 | 1018.6 |
| 20260906053102 | 71 | 340 | 0.9 | 0.9 | 0.00 | 0.00 | 0.00 | 90 | 1018.6 |
| 20260906053003 | 71 | 32 | 0.0 | 1.7 | 0.00 | 0.00 | 0.00 | 90 | 1018.7 |
| 20260906052905 | 71 | 32 | 0.0 | 1.7 | 0.00 | 0.00 | 0.00 | 90 | 1018.7 |
| 20260906052803 | 71 | 32 | 0.0 | 1.7 | 0.00 | 0.00 | 0.00 | 89 | 1018.7 |
| 20260906052703 | 71 | 32 | 0.0 | 1.7 | 0.00 | 0.00 | 0.00 | 89 | 1018.7 |
| 20260906052602 | 71 | 103 | 0.0 | 1.7 | 0.00 | 0.00 | 0.00 | 90 | 1018.7 |
| 20260906052305 | 71 | 102 | 0.0 | 3.5 | 0.00 | 0.00 | 0.00 | 89 | 1018.7 |
| 20260906052203 | 71 | 102 | 0.0 | 3.5 | 0.00 | 0.00 | 0.00 | 89 | 1018.7 |
| 20260906052102 | 71 | 155 | 0.9 | 3.5 | 0.00 | 0.00 | 0.00 | 89 | 1018.6 |
| 20260906052002 | 71 | 41 | 0.0 | 3.5 | 0.00 | 0.00 | 0.00 | 89 | 1018.7 |
| 20260906051903 | 71 | 86 | 0.0 | 3.5 | 0.00 | 0.00 | 0.00 | 89 | 1018.7 |
| 20260906051702 | 71 | 77 | 0.0 | 3.5 | 0.00 | 0.00 | 0.00 | 89 | 1018.6 |
| 20260906051603 | 71 | 359 | 1.7 | 3.5 | 0.00 | 0.00 | 0.00 | 89 | 1018.6 |
| 20260906051503 | 71 | 107 | 3.5 | 3.5 | 0.00 | 0.00 | 0.00 | 89 | 1018.6 |
| 20260906051402 | 71 | 94 | 0.0 | 2.6 | 0.00 | 0.00 | 0.00 | 89 | 1018.6 |
| 20260906051303 | 71 | 95 | 0.0 | 2.6 | 0.00 | 0.00 | 0.00 | 89 | 1018.6 |
| 20260906051202 | 71 | 96 | 0.9 | 2.6 | 0.00 | 0.00 | 0.00 | 89 | 1018.5 |
| 20260906051102 | 71 | 342 | 0.0 | 2.6 | 0.00 | 0.00 | 0.00 | 89 | 1018.5 |
| 20260906050902 | 71 | 75 | 0.0 | 2.6 | 0.00 | 0.00 | 0.00 | 89 | 1018.5 |
| 20260906050802 | 71 | 68 | 0.0 | 2.6 | 0.00 | 0.00 | 0.00 | 89 | 1018.4 |
| 20260906050703 | 71 | 29 | 0.0 | 2.6 | 0.00 | 0.00 | 0.00 | 89 | 1018.4 |
| 20260906050403 | 71 | 98 | 0.0 | 1.7 | 0.00 | 0.00 | 0.00 | 88 | 1018.3 |
| 20260906050203 | 71 | 100 | 0.0 | 1.7 | 0.00 | 0.00 | 0.00 | 88 | 1018.3 |
| 20260906050004 | 71 | 41 | 0.0 | 1.7 | 0.00 | 0.00 | 0.00 | 88 | 1018.3 |
| 20260906045903 | 71 | 39 | 0.0 | 1.7 | 0.00 | 0.00 | 0.00 | 88 | 1018.3 |
| 20260906045804 | 71 | 15 | 1.7 | 1.7 | 0.00 | 0.00 | 0.00 | 88 | 1018.2 |
| 20260906045704 | 71 | 8 | 0.0 | 1.7 | 0.00 | 0.00 | 0.00 | 88 | 1018.2 |
| 20260906045603 | 71 | 24 | 0.0 | 1.7 | 0.00 | 0.00 | 0.00 | 88 | 1018.3 |
| 20260906045403 | 72 | 155 | 0.9 | 1.7 | 0.00 | 0.00 | 0.00 | 88 | 1018.2 |
| 20260906045202 | 72 | 86 | 0.0 | 1.7 | 0.00 | 0.00 | 0.00 | 88 | 1018.1 |
| 20260906045103 | 72 | 122 | 0.0 | 1.7 | 0.00 | 0.00 | 0.00 | 88 | 1018.2 |
| 20260906045002 | 72 | 123 | 0.0 | 1.7 | 0.00 | 0.00 | 0.00 | 88 | 1018.2 |
| 20260906044903 | 72 | 217 | 0.0 | 1.7 | 0.00 | 0.00 | 0.00 | 88 | 1018.2 |
| 20260906044802 | 72 | 72 | 0.0 | 1.7 | 0.00 | 0.00 | 0.00 | 87 | 1018.1 |
| 20260906044702 | 72 | 72 | 0.0 | 1.7 | 0.00 | 0.00 | 0.00 | 87 | 1018.2 |
| 20260906044603 | 72 | 83 | 0.9 | 1.7 | 0.00 | 0.00 | 0.00 | 87 | 1018.3 |
| 20260906044502 | 72 | 195 | 0.0 | 1.7 | 0.00 | 0.00 | 0.00 | 87 | 1018.2 |
| 20260906044402 | 72 | 154 | 0.0 | 2.6 | 0.00 | 0.00 | 0.00 | 87 | 1018.2 |
| 20260906044302 | 72 | 1 | 0.0 | 2.6 | 0.00 | 0.00 | 0.00 | 87 | 1018.3 |
| 20260906044202 | 72 | 4 | 0.0 | 2.6 | 0.00 | 0.00 | 0.00 | 87 | 1018.2 |
| 20260906044103 | 72 | 5 | 0.0 | 3.5 | 0.00 | 0.00 | 0.00 | 87 | 1018.3 |
| 20260906044003 | 72 | 3 | 0.0 | 3.5 | 0.00 | 0.00 | 0.00 | 87 | 1018.3 |
| 20260906043902 | 72 | 18 | 0.0 | 3.5 | 0.00 | 0.00 | 0.00 | 87 | 1018.3 |
| 20260906043803 | 72 | 19 | 0.0 | 3.5 | 0.00 | 0.00 | 0.00 | 87 | 1018.2 |
| 20260906043603 | 72 | 112 | 0.0 | 3.5 | 0.00 | 0.00 | 0.00 | 87 | 1018.2 |
| 20260906043502 | 72 | 144 | 0.9 | 3.5 | 0.00 | 0.00 | 0.00 | 87 | 1018.2 |
| 20260906043402 | 72 | 338 | 0.0 | 3.5 | 0.00 | 0.00 | 0.00 | 87 | 1018.1 |
| 20260906043202 | 72 | 110 | 0.0 | 3.5 | 0.00 | 0.00 | 0.00 | 87 | 1018.2 |
| 20260906043004 | 72 | 83 | 0.0 | 1.7 | 0.00 | 0.00 | 0.00 | 87 | 1018.1 |
| 20260906042902 | 72 | 32 | 0.9 | 1.7 | 0.00 | 0.00 | 0.00 | 87 | 1018.1 |
| 20260906042803 | 72 | 333 | 0.0 | 2.6 | 0.00 | 0.00 | 0.00 | 87 | 1018.1 |
| 20260906042703 | 72 | 51 | 0.0 | 3.5 | 0.00 | 0.00 | 0.00 | 87 | 1018.1 |
| 20260906042602 | 72 | 51 | 0.0 | 3.5 | 0.00 | 0.00 | 0.00 | 86 | 1018.1 |
| 20260906042502 | 72 | 86 | 0.0 | 3.5 | 0.00 | 0.00 | 0.00 | 86 | 1018.0 |
| 20260906042403 | 72 | 79 | 1.7 | 3.5 | 0.00 | 0.00 | 0.00 | 86 | 1018.1 |
| 20260906042306 | 72 | 195 | 0.0 | 3.5 | 0.00 | 0.00 | 0.00 | 86 | 1018.0 |
| 20260906042202 | 72 | 122 | 0.0 | 3.5 | 0.00 | 0.00 | 0.00 | 86 | 1018.0 |
| 20260906042102 | 72 | 84 | 0.0 | 3.5 | 0.00 | 0.00 | 0.00 | 86 | 1018.0 |
| 20260906041902 | 72 | 91 | 2.6 | 3.5 | 0.00 | 0.00 | 0.00 | 86 | 1018.0 |
| 20260906041702 | 72 | 71 | 0.9 | 3.5 | 0.00 | 0.00 | 0.00 | 86 | 1017.9 |
| 20260906041603 | 72 | 115 | 0.9 | 2.6 | 0.00 | 0.00 | 0.00 | 86 | 1017.9 |
| 20260906041504 | 72 | 105 | 1.7 | 2.6 | 0.00 | 0.00 | 0.00 | 86 | 1018.0 |
| 20260906041403 | 72 | 326 | 0.0 | 2.6 | 0.00 | 0.00 | 0.00 | 86 | 1017.9 |
| 20260906041302 | 72 | 131 | 0.9 | 2.6 | 0.00 | 0.00 | 0.00 | 86 | 1018.0 |
| 20260906041203 | 72 | 72 | 1.7 | 2.6 | 0.00 | 0.00 | 0.00 | 86 | 1017.9 |
| 20260906041102 | 72 | 94 | 1.7 | 2.6 | 0.00 | 0.00 | 0.00 | 86 | 1018.0 |
| 20260906040903 | 72 | 82 | 0.0 | 2.6 | 0.00 | 0.00 | 0.00 | 86 | 1017.9 |
| 20260906040702 | 72 | 94 | 2.6 | 2.6 | 0.00 | 0.00 | 0.00 | 86 | 1018.0 |
| 20260906040603 | 72 | 72 | 0.0 | 2.6 | 0.00 | 0.00 | 0.00 | 86 | 1017.9 |
| 20260906040503 | 72 | 86 | 1.7 | 3.5 | 0.00 | 0.00 | 0.00 | 86 | 1018.0 |
| 20260906040402 | 72 | 157 | 0.0 | 3.5 | 0.00 | 0.00 | 0.00 | 86 | 1017.9 |
| 20260906040302 | 72 | 43 | 0.9 | 3.5 | 0.00 | 0.00 | 0.00 | 86 | 1018.0 |
| 20260906040202 | 72 | 13 | 0.0 | 5.2 | 0.00 | 0.00 | 0.00 | 86 | 1017.9 |
| 20260906040004 | 72 | 91 | 1.7 | 5.2 | 0.00 | 0.00 | 0.00 | 85 | 1018.0 |
| 20260906035902 | 72 | 348 | 0.9 | 5.2 | 0.00 | 0.00 | 0.00 | 85 | 1017.9 |
| 20260906035703 | 73 | 108 | 2.6 | 5.2 | 0.00 | 0.00 | 0.00 | 85 | 1017.9 |
| 20260906035503 | 72 | 64 | 0.0 | 5.2 | 0.00 | 0.00 | 0.00 | 85 | 1017.8 |
| 20260906035403 | 73 | 138 | 1.7 | 5.2 | 0.00 | 0.00 | 0.00 | 85 | 1017.7 |
| 20260906035305 | 73 | 96 | 2.6 | 5.2 | 0.00 | 0.00 | 0.00 | 85 | 1017.8 |
| 20260906035202 | 73 | 103 | 2.6 | 5.2 | 0.00 | 0.00 | 0.00 | 85 | 1017.7 |
| 20260906035102 | 73 | 136 | 1.7 | 5.2 | 0.00 | 0.00 | 0.00 | 85 | 1017.7 |
| 20260906035003 | 73 | 70 | 2.6 | 5.2 | 0.00 | 0.00 | 0.00 | 85 | 1017.7 |
| 20260906034502 | 73 | 103 | 4.3 | 5.2 | 0.00 | 0.00 | 0.00 | 85 | 1017.7 |
| 20260906034402 | 73 | 98 | 2.6 | 7.0 | 0.00 | 0.00 | 0.00 | 85 | 1017.6 |
| 20260906034303 | 73 | 103 | 0.0 | 7.0 | 0.00 | 0.00 | 0.00 | 85 | 1017.6 |
| 20260906034102 | 73 | 89 | 2.6 | 7.0 | 0.00 | 0.00 | 0.00 | 85 | 1017.7 |
| 20260906034003 | 73 | 87 | 0.9 | 7.0 | 0.00 | 0.00 | 0.00 | 85 | 1017.7 |
| 20260906033902 | 73 | 75 | 0.0 | 7.0 | 0.00 | 0.00 | 0.00 | 85 | 1017.7 |
| 20260906033502 | 73 | 86 | 1.7 | 7.0 | 0.00 | 0.00 | 0.00 | 85 | 1017.7 |
| 20260906033402 | 73 | 67 | 3.5 | 7.0 | 0.00 | 0.00 | 0.00 | 85 | 1017.6 |
| 20260906033302 | 73 | 81 | 3.5 | 7.0 | 0.00 | 0.00 | 0.00 | 85 | 1017.6 |
| 20260906033202 | 73 | 89 | 3.5 | 7.0 | 0.00 | 0.00 | 0.00 | 85 | 1017.7 |
| 20260906033102 | 73 | 104 | 3.5 | 7.0 | 0.00 | 0.00 | 0.00 | 85 | 1017.7 |
| 20260906033004 | 73 | 80 | 3.5 | 7.0 | 0.00 | 0.00 | 0.00 | 85 | 1017.7 |
| 20260906032903 | 73 | 51 | 3.5 | 7.0 | 0.00 | 0.00 | 0.00 | 84 | 1017.8 |
| 20260906032802 | 73 | 110 | 5.2 | 7.0 | 0.00 | 0.00 | 0.00 | 84 | 1017.8 |
| 20260906032703 | 73 | 73 | 2.6 | 7.0 | 0.00 | 0.00 | 0.00 | 84 | 1017.8 |
| 20260906032602 | 73 | 115 | 5.2 | 7.0 | 0.00 | 0.00 | 0.00 | 84 | 1017.8 |
| 20260906032504 | 73 | 79 | 2.6 | 7.0 | 0.00 | 0.00 | 0.00 | 84 | 1017.8 |
| 20260906032406 | 73 | 125 | 3.5 | 7.0 | 0.00 | 0.00 | 0.00 | 84 | 1017.8 |
| 20260906032306 | 73 | 97 | 2.6 | 7.0 | 0.00 | 0.00 | 0.00 | 84 | 1017.8 |
| 20260906032204 | 73 | 144 | 2.6 | 7.0 | 0.00 | 0.00 | 0.00 | 84 | 1017.8 |
| 20260906032102 | 73 | 84 | 1.7 | 7.0 | 0.00 | 0.00 | 0.00 | 84 | 1017.8 |
| 20260906032003 | 73 | 126 | 1.7 | 7.0 | 0.00 | 0.00 | 0.00 | 84 | 1017.7 |
| 20260906031902 | 73 | 67 | 4.3 | 7.0 | 0.00 | 0.00 | 0.00 | 84 | 1017.7 |
| 20260906031802 | 73 | 124 | 0.9 | 7.0 | 0.00 | 0.00 | 0.00 | 84 | 1017.7 |
| 20260906031703 | 73 | 67 | 2.6 | 7.0 | 0.00 | 0.00 | 0.00 | 84 | 1017.7 |
| 20260906031602 | 73 | 70 | 2.6 | 7.0 | 0.00 | 0.00 | 0.00 | 84 | 1017.7 |
| 20260906031503 | 73 | 98 | 2.6 | 7.0 | 0.00 | 0.00 | 0.00 | 84 | 1017.6 |
| 20260906031302 | 73 | 103 | 1.7 | 7.0 | 0.00 | 0.00 | 0.00 | 84 | 1017.6 |
| 20260906031202 | 73 | 141 | 1.7 | 6.1 | 0.00 | 0.00 | 0.00 | 84 | 1017.6 |
| 20260906031104 | 73 | 77 | 4.3 | 6.1 | 0.00 | 0.00 | 0.00 | 84 | 1017.6 |
| 20260906031002 | 73 | 105 | 3.5 | 6.1 | 0.00 | 0.00 | 0.00 | 85 | 1017.6 |
| 20260906030902 | 73 | 150 | 2.6 | 6.1 | 0.00 | 0.00 | 0.00 | 85 | 1017.6 |
| 20260906030802 | 73 | 122 | 0.0 | 7.8 | 0.00 | 0.00 | 0.00 | 85 | 1017.6 |
| 20260906030703 | 73 | 85 | 1.7 | 7.8 | 0.00 | 0.00 | 0.00 | 84 | 1017.6 |
| 20260906030602 | 73 | 79 | 3.5 | 7.8 | 0.00 | 0.00 | 0.00 | 85 | 1017.7 |
| 20260906030502 | 73 | 67 | 3.5 | 7.8 | 0.00 | 0.00 | 0.00 | 85 | 1017.7 |
| 20260906030402 | 73 | 83 | 2.6 | 7.8 | 0.00 | 0.00 | 0.00 | 84 | 1017.7 |
| 20260906030304 | 73 | 47 | 2.6 | 7.8 | 0.00 | 0.00 | 0.00 | 84 | 1017.7 |
| 20260906030204 | 73 | 62 | 2.6 | 7.8 | 0.00 | 0.00 | 0.00 | 84 | 1017.7 |
| 20260906030004 | 73 | 72 | 1.7 | 7.8 | 0.00 | 0.00 | 0.00 | 84 | 1017.6 |
| 20260906025902 | 73 | 167 | 5.2 | 7.8 | 0.00 | 0.00 | 0.00 | 84 | 1017.6 |
| 20260906025802 | 73 | 110 | 3.5 | 7.8 | 0.00 | 0.00 | 0.00 | 84 | 1017.7 |
| 20260906025703 | 73 | 136 | 0.9 | 7.8 | 0.00 | 0.00 | 0.00 | 85 | 1017.6 |
| 20260906025604 | 73 | 118 | 1.7 | 7.8 | 0.00 | 0.00 | 0.00 | 85 | 1017.6 |
| 20260906025403 | 73 | 68 | 3.5 | 7.8 | 0.00 | 0.00 | 0.00 | 85 | 1017.7 |
| 20260906025002 | 73 | 128 | 1.7 | 6.1 | 0.00 | 0.00 | 0.00 | 85 | 1017.6 |
| 20260906024802 | 73 | 161 | 2.6 | 6.1 | 0.00 | 0.00 | 0.00 | 84 | 1017.6 |
| 20260906024702 | 73 | 74 | 4.3 | 6.1 | 0.00 | 0.00 | 0.00 | 84 | 1017.6 |
| 20260906024602 | 73 | 110 | 0.9 | 5.2 | 0.00 | 0.00 | 0.00 | 84 | 1017.6 |
| 20260906024402 | 73 | 87 | 2.6 | 5.2 | 0.00 | 0.00 | 0.00 | 84 | 1017.7 |
| 20260906024303 | 73 | 71 | 2.6 | 5.2 | 0.00 | 0.00 | 0.00 | 84 | 1017.7 |
| 20260906024202 | 73 | 68 | 3.5 | 5.2 | 0.00 | 0.00 | 0.00 | 84 | 1017.7 |
| 20260906024102 | 73 | 103 | 1.7 | 5.2 | 0.00 | 0.00 | 0.00 | 84 | 1017.7 |
| 20260906024002 | 73 | 86 | 3.5 | 5.2 | 0.00 | 0.00 | 0.00 | 84 | 1017.7 |
| 20260906023902 | 73 | 72 | 5.2 | 5.2 | 0.00 | 0.00 | 0.00 | 84 | 1017.7 |
| 20260906023802 | 73 | 119 | 0.9 | 5.2 | 0.00 | 0.00 | 0.00 | 84 | 1017.7 |
| 20260906023703 | 73 | 72 | 2.6 | 6.1 | 0.00 | 0.00 | 0.00 | 84 | 1017.7 |
| 20260906023602 | 73 | 96 | 0.0 | 6.1 | 0.00 | 0.00 | 0.00 | 84 | 1017.7 |
| 20260906023504 | 73 | 80 | 2.6 | 6.1 | 0.00 | 0.00 | 0.00 | 84 | 1017.7 |
| 20260906023401 | 73 | 134 | 0.9 | 6.1 | 0.00 | 0.00 | 0.00 | 84 | 1017.6 |
| 20260906023202 | 73 | 114 | 0.9 | 6.1 | 0.00 | 0.00 | 0.00 | 84 | 1017.7 |
| 20260906023102 | 73 | 103 | 3.5 | 6.1 | 0.00 | 0.00 | 0.00 | 84 | 1017.6 |
| 20260906022902 | 73 | 98 | 0.9 | 6.1 | 0.00 | 0.00 | 0.00 | 84 | 1017.5 |
| 20260906022802 | 73 | 82 | 3.5 | 6.1 | 0.00 | 0.00 | 0.00 | 84 | 1017.5 |
| 20260906022602 | 73 | 82 | 2.6 | 6.1 | 0.00 | 0.00 | 0.00 | 84 | 1017.5 |
| 20260906022503 | 73 | 110 | 0.9 | 6.1 | 0.00 | 0.00 | 0.00 | 84 | 1017.6 |
| 20260906022403 | 73 | 104 | 2.6 | 6.1 | 0.00 | 0.00 | 0.00 | 84 | 1017.5 |
| 20260906022307 | 73 | 82 | 4.3 | 6.1 | 0.00 | 0.00 | 0.00 | 84 | 1017.6 |
| 20260906022203 | 73 | 91 | 2.6 | 10.4 | 0.00 | 0.00 | 0.00 | 84 | 1017.6 |
| 20260906022102 | 73 | 134 | 0.9 | 10.4 | 0.00 | 0.00 | 0.00 | 84 | 1017.5 |
| 20260906022003 | 73 | 134 | 0.0 | 10.4 | 0.00 | 0.00 | 0.00 | 84 | 1017.5 |
| 20260906021902 | 73 | 101 | 6.1 | 10.4 | 0.00 | 0.00 | 0.00 | 84 | 1017.6 |
| 20260906021802 | 73 | 105 | 2.6 | 10.4 | 0.00 | 0.00 | 0.00 | 84 | 1017.6 |
| 20260906021702 | 73 | 99 | 3.5 | 10.4 | 0.00 | 0.00 | 0.00 | 84 | 1017.6 |
| 20260906021602 | 73 | 69 | 5.2 | 10.4 | 0.00 | 0.00 | 0.00 | 84 | 1017.6 |
| 20260906021402 | 73 | 118 | 0.9 | 10.4 | 0.00 | 0.00 | 0.00 | 84 | 1017.5 |
| 20260906021102 | 73 | 89 | 3.5 | 7.8 | 0.00 | 0.00 | 0.00 | 84 | 1017.5 |
| 20260906021002 | 73 | 94 | 2.6 | 7.8 | 0.00 | 0.00 | 0.00 | 84 | 1017.5 |
| 20260906020903 | 73 | 123 | 2.6 | 6.1 | 0.00 | 0.00 | 0.00 | 85 | 1017.6 |
| 20260906020802 | 73 | 119 | 2.6 | 7.0 | 0.00 | 0.00 | 0.00 | 85 | 1017.5 |
| 20260906020703 | 73 | 132 | 1.7 | 7.0 | 0.00 | 0.00 | 0.00 | 85 | 1017.5 |
| 20260906020602 | 73 | 288 | 0.9 | 7.0 | 0.00 | 0.00 | 0.00 | 84 | 1017.4 |
| 20260906020504 | 73 | 158 | 0.0 | 7.0 | 0.00 | 0.00 | 0.00 | 84 | 1017.5 |
| 20260906020402 | 73 | 231 | 0.0 | 7.0 | 0.00 | 0.00 | 0.00 | 84 | 1017.5 |
| 20260906020302 | 73 | 101 | 1.7 | 7.0 | 0.00 | 0.00 | 0.00 | 84 | 1017.5 |
| 20260906020202 | 73 | 191 | 2.6 | 7.0 | 0.00 | 0.00 | 0.00 | 84 | 1017.5 |
| 20260906020005 | 73 | 105 | 5.2 | 5.2 | 0.00 | 0.00 | 0.00 | 84 | 1017.5 |
| 20260906015802 | 73 | 86 | 0.0 | 7.0 | 0.00 | 0.00 | 0.00 | 84 | 1017.4 |
| 20260906015703 | 73 | 14 | 2.6 | 7.0 | 0.00 | 0.00 | 0.00 | 84 | 1017.5 |
| 20260906015602 | 73 | 89 | 0.9 | 7.0 | 0.00 | 0.00 | 0.00 | 84 | 1017.4 |
| 20260906015502 | 73 | 115 | 0.9 | 7.0 | 0.00 | 0.00 | 0.00 | 84 | 1017.5 |
| 20260906015403 | 73 | 89 | 1.7 | 7.0 | 0.00 | 0.00 | 0.00 | 84 | 1017.4 |
| 20260906015306 | 73 | 146 | 2.6 | 7.0 | 0.00 | 0.00 | 0.00 | 84 | 1017.4 |
| 20260906015202 | 73 | 105 | 2.6 | 7.0 | 0.00 | 0.00 | 0.00 | 84 | 1017.4 |
| 20260906015004 | 73 | 63 | 3.5 | 7.0 | 0.00 | 0.00 | 0.00 | 84 | 1017.4 |
| 20260906014902 | 73 | 95 | 3.5 | 7.0 | 0.00 | 0.00 | 0.00 | 84 | 1017.5 |
| 20260906014804 | 73 | 91 | 2.6 | 5.2 | 0.00 | 0.00 | 0.00 | 84 | 1017.5 |
| 20260906014602 | 73 | 102 | 0.0 | 4.3 | 0.00 | 0.00 | 0.00 | 84 | 1017.5 |
| 20260906014502 | 73 | 271 | 0.0 | 3.5 | 0.00 | 0.00 | 0.00 | 85 | 1017.5 |
| 20260906014402 | 73 | 122 | 0.9 | 3.5 | 0.00 | 0.00 | 0.00 | 85 | 1017.5 |
| 20260906014102 | 73 | 142 | 0.9 | 7.0 | 0.00 | 0.00 | 0.00 | 85 | 1017.5 |
| 20260906014002 | 73 | 93 | 0.0 | 7.0 | 0.00 | 0.00 | 0.00 | 85 | 1017.5 |
| 20260906013902 | 73 | 113 | 0.9 | 7.0 | 0.00 | 0.00 | 0.00 | 85 | 1017.5 |
| 20260906013802 | 73 | 359 | 0.9 | 7.0 | 0.00 | 0.00 | 0.00 | 85 | 1017.5 |
| 20260906013702 | 73 | 134 | 1.7 | 7.0 | 0.00 | 0.00 | 0.00 | 85 | 1017.4 |
| 20260906013402 | 73 | 135 | 1.7 | 7.0 | 0.00 | 0.00 | 0.00 | 85 | 1017.5 |
| 20260906013304 | 73 | 217 | 1.7 | 6.1 | 0.00 | 0.00 | 0.00 | 85 | 1017.5 |
| 20260906013202 | 73 | 133 | 1.7 | 6.1 | 0.00 | 0.00 | 0.00 | 85 | 1017.4 |
| 20260906013002 | 73 | 335 | 0.9 | 6.1 | 0.00 | 0.00 | 0.00 | 85 | 1017.5 |
| 20260906012902 | 73 | 321 | 0.9 | 6.1 | 0.00 | 0.00 | 0.00 | 85 | 1017.4 |
| 20260906012803 | 73 | 151 | 0.0 | 7.0 | 0.00 | 0.00 | 0.00 | 85 | 1017.5 |
| 20260906012703 | 73 | 3 | 0.9 | 7.0 | 0.00 | 0.00 | 0.00 | 85 | 1017.4 |
| 20260906012602 | 73 | 140 | 0.0 | 7.0 | 0.00 | 0.00 | 0.00 | 85 | 1017.4 |
| 20260906012401 | 73 | 90 | 6.1 | 7.0 | 0.00 | 0.00 | 0.00 | 85 | 1017.4 |
| 20260906012306 | 73 | 217 | 0.9 | 7.0 | 0.00 | 0.00 | 0.00 | 85 | 1017.4 |
| 20260906012202 | 73 | 6 | 5.2 | 7.0 | 0.00 | 0.00 | 0.00 | 85 | 1017.5 |
| 20260906012102 | 73 | 141 | 0.9 | 7.0 | 0.00 | 0.00 | 0.00 | 85 | 1017.4 |
| 20260906012003 | 73 | 205 | 0.0 | 8.7 | 0.00 | 0.00 | 0.00 | 85 | 1017.4 |
| 20260906011902 | 73 | 288 | 0.9 | 8.7 | 0.00 | 0.00 | 0.00 | 85 | 1017.4 |
| 20260906011802 | 73 | 7 | 0.0 | 8.7 | 0.00 | 0.00 | 0.00 | 85 | 1017.4 |
| 20260906011704 | 73 | 359 | 1.7 | 8.7 | 0.00 | 0.00 | 0.00 | 85 | 1017.3 |
| 20260906011602 | 73 | 56 | 0.9 | 8.7 | 0.00 | 0.00 | 0.00 | 85 | 1017.5 |
| 20260906011502 | 73 | 88 | 0.9 | 8.7 | 0.00 | 0.00 | 0.00 | 85 | 1017.4 |
| 20260906011403 | 73 | 112 | 4.3 | 8.7 | 0.00 | 0.00 | 0.00 | 85 | 1017.5 |
| 20260906011302 | 73 | 80 | 3.5 | 9.6 | 0.00 | 0.00 | 0.00 | 85 | 1017.4 |
| 20260906011202 | 73 | 74 | 3.5 | 9.6 | 0.00 | 0.00 | 0.00 | 85 | 1017.5 |
| 20260906011102 | 73 | 120 | 1.7 | 9.6 | 0.00 | 0.00 | 0.00 | 85 | 1017.4 |
| 20260906011005 | 73 | 107 | 4.3 | 9.6 | 0.00 | 0.00 | 0.00 | 85 | 1017.4 |
| 20260906010903 | 73 | 106 | 4.3 | 9.6 | 0.00 | 0.00 | 0.00 | 85 | 1017.4 |
| 20260906010802 | 73 | 95 | 0.9 | 9.6 | 0.00 | 0.00 | 0.00 | 85 | 1017.5 |
| 20260906010702 | 73 | 136 | 3.5 | 9.6 | 0.00 | 0.00 | 0.00 | 84 | 1017.5 |
| 20260906010602 | 73 | 73 | 1.7 | 9.6 | 0.00 | 0.00 | 0.00 | 84 | 1017.5 |
| 20260906010502 | 73 | 81 | 5.2 | 9.6 | 0.00 | 0.00 | 0.00 | 84 | 1017.4 |
| 20260906010402 | 73 | 90 | 4.3 | 7.0 | 0.00 | 0.00 | 0.00 | 84 | 1017.5 |
| 20260906010203 | 73 | 140 | 1.7 | 7.8 | 0.00 | 0.00 | 0.00 | 84 | 1017.5 |
| 20260906010004 | 73 | 323 | 1.7 | 7.8 | 0.00 | 0.00 | 0.00 | 84 | 1017.5 |
| 20260906005901 | 73 | 82 | 0.9 | 7.8 | 0.00 | 0.00 | 0.00 | 84 | 1017.4 |
| 20260906005801 | 74 | 115 | 2.6 | 7.8 | 0.00 | 0.00 | 0.00 | 84 | 1017.4 |
| 20260906005701 | 74 | 105 | 1.7 | 7.8 | 0.00 | 0.00 | 0.00 | 84 | 1017.4 |
| 20260906005601 | 74 | 103 | 4.3 | 7.8 | 0.00 | 0.00 | 0.00 | 84 | 1017.4 |
| 20260906005501 | 74 | 35 | 3.5 | 7.8 | 0.00 | 0.00 | 0.00 | 84 | 1017.4 |
| 20260906005301 | 74 | 65 | 2.6 | 7.8 | 0.00 | 0.00 | 0.00 | 84 | 1017.4 |
| 20260906005101 | 74 | 122 | 5.2 | 7.8 | 0.00 | 0.00 | 0.00 | 84 | 1017.4 |
| 20260906005001 | 74 | 100 | 1.7 | 7.0 | 0.00 | 0.00 | 0.00 | 84 | 1017.4 |
| 20260906004901 | 74 | 68 | 5.2 | 7.0 | 0.00 | 0.00 | 0.00 | 84 | 1017.3 |
| 20260906004801 | 74 | 84 | 2.6 | 8.7 | 0.00 | 0.00 | 0.00 | 84 | 1017.3 |
| 20260906004701 | 74 | 160 | 4.3 | 8.7 | 0.00 | 0.00 | 0.00 | 84 | 1017.3 |
| 20260906004601 | 74 | 101 | 4.3 | 8.7 | 0.00 | 0.00 | 0.00 | 83 | 1017.3 |
| 20260906004501 | 74 | 157 | 1.7 | 8.7 | 0.00 | 0.00 | 0.00 | 83 | 1017.3 |
| 20260906004301 | 75 | 103 | 0.9 | 8.7 | 0.00 | 0.00 | 0.00 | 83 | 1017.3 |
| 20260906004201 | 75 | 139 | 0.0 | 8.7 | 0.00 | 0.00 | 0.00 | 83 | 1017.3 |
| 20260906004101 | 75 | 313 | 1.7 | 8.7 | 0.00 | 0.00 | 0.00 | 83 | 1017.3 |
| 20260906003902 | 75 | 91 | 6.1 | 8.7 | 0.00 | 0.00 | 0.00 | 83 | 1017.3 |
| 20260906003801 | 75 | 130 | 3.5 | 8.7 | 0.00 | 0.00 | 0.00 | 83 | 1017.2 |
| 20260906003701 | 75 | 108 | 5.2 | 8.7 | 0.00 | 0.00 | 0.00 | 83 | 1017.3 |
| 20260906003502 | 75 | 50 | 4.3 | 8.7 | 0.00 | 0.00 | 0.00 | 82 | 1017.3 |
| 20260906003401 | 75 | 80 | 7.8 | 8.7 | 0.00 | 0.00 | 0.00 | 82 | 1017.3 |
| 20260906003301 | 75 | 94 | 6.1 | 8.7 | 0.00 | 0.00 | 0.00 | 82 | 1017.3 |
| 20260906003201 | 75 | 77 | 4.3 | 8.7 | 0.00 | 0.00 | 0.00 | 82 | 1017.2 |
| 20260906003102 | 75 | 47 | 5.2 | 7.8 | 0.00 | 0.00 | 0.00 | 82 | 1017.3 |
| 20260906003001 | 76 | 77 | 3.5 | 7.8 | 0.00 | 0.00 | 0.00 | 82 | 1017.3 |
| 20260906002901 | 76 | 80 | 0.9 | 7.8 | 0.00 | 0.00 | 0.00 | 82 | 1017.3 |
| 20260906002802 | 76 | 146 | 0.9 | 7.8 | 0.00 | 0.00 | 0.00 | 82 | 1017.1 |
| 20260906002701 | 76 | 127 | 2.6 | 7.8 | 0.00 | 0.00 | 0.00 | 82 | 1017.1 |
| 20260906002601 | 76 | 91 | 6.1 | 6.1 | 0.00 | 0.00 | 0.00 | 82 | 1017.1 |
| 20260906002401 | 76 | 88 | 3.5 | 6.1 | 0.00 | 0.00 | 0.00 | 82 | 1017.1 |
| 20260906002301 | 76 | 137 | 1.7 | 6.1 | 0.00 | 0.00 | 0.00 | 82 | 1017.1 |
| 20260906002202 | 76 | 93 | 5.2 | 6.1 | 0.00 | 0.00 | 0.00 | 82 | 1017.0 |
| 20260906002102 | 76 | 68 | 1.7 | 6.1 | 0.00 | 0.00 | 0.00 | 82 | 1017.0 |
| 20260906001901 | 76 | 182 | 0.0 | 6.1 | 0.00 | 0.00 | 0.00 | 82 | 1016.9 |
| 20260906001802 | 76 | 108 | 0.9 | 7.0 | 0.00 | 0.00 | 0.00 | 82 | 1017.0 |
| 20260906001701 | 76 | 108 | 0.9 | 7.0 | 0.00 | 0.00 | 0.00 | 81 | 1016.9 |
| 20260906001502 | 76 | 112 | 2.6 | 7.0 | 0.00 | 0.00 | 0.00 | 81 | 1017.0 |
| 20260906001402 | 76 | 195 | 2.6 | 7.0 | 0.00 | 0.00 | 0.00 | 81 | 1016.9 |
| 20260906001302 | 76 | 176 | 2.6 | 7.8 | 0.00 | 0.00 | 0.00 | 81 | 1016.9 |
| 20260906001201 | 76 | 41 | 5.2 | 8.7 | 0.00 | 0.00 | 0.00 | 81 | 1017.0 |
| 20260906001101 | 77 | 108 | 3.5 | 8.7 | 0.00 | 0.00 | 0.00 | 81 | 1016.9 |
| 20260906001002 | 77 | 110 | 7.0 | 8.7 | 0.00 | 0.00 | 0.00 | 81 | 1016.9 |
| 20260906000901 | 77 | 84 | 0.0 | 8.7 | 0.00 | 0.00 | 0.00 | 81 | 1016.9 |
| 20260906000801 | 77 | 167 | 0.9 | 8.7 | 0.00 | 0.00 | 0.00 | 81 | 1017.0 |
| 20260906000701 | 77 | 153 | 1.7 | 8.7 | 0.00 | 0.00 | 0.00 | 81 | 1016.9 |
| 20260906000601 | 77 | 127 | 3.5 | 8.7 | 0.00 | 0.00 | 0.00 | 81 | 1016.9 |
| 20260906000502 | 77 | 77 | 0.0 | 8.7 | 0.00 | 0.00 | 0.00 | 81 | 1016.9 |
| 20260906000303 | 77 | 74 | 7.0 | 7.0 | 0.00 | 0.00 | 0.00 | 81 | 1016.8 |
| 20260906000204 | 77 | 144 | 2.6 | 7.0 | 0.00 | 0.00 | 0.00 | 81 | 1016.7 |
| 20260906000001 | 77 | 94 | 1.7 | 7.0 | 0.00 | 0.00 | 0.00 | 81 | 1016.6 |
| 20260905235901 | 77 | 100 | 1.7 | 7.0 | 0.00 | 0.00 | 0.00 | 81 | 1016.6 |
| 20260905235802 | 77 | 69 | 2.6 | 8.7 | 0.00 | 0.00 | 0.00 | 81 | 1016.6 |
| 20260905235701 | 77 | 113 | 0.0 | 8.7 | 0.00 | 0.00 | 0.00 | 81 | 1016.6 |
| 20260905235502 | 78 | 81 | 6.1 | 8.7 | 0.00 | 0.00 | 0.00 | 80 | 1016.6 |
| 20260905235402 | 78 | 86 | 4.3 | 8.7 | 0.00 | 0.00 | 0.00 | 80 | 1016.5 |
| 20260905235300 | 78 | 111 | 4.3 | 8.7 | 0.00 | 0.00 | 0.00 | 80 | 1016.5 |
| 20260905235201 | 78 | 97 | 5.2 | 8.7 | 0.00 | 0.00 | 0.00 | 80 | 1016.5 |
| 20260905235101 | 78 | 110 | 5.2 | 8.7 | 0.00 | 0.00 | 0.00 | 80 | 1016.4 |
| 20260905235001 | 78 | 94 | 6.1 | 8.7 | 0.00 | 0.00 | 0.00 | 80 | 1016.3 |
| 20260905234901 | 78 | 124 | 6.1 | 8.7 | 0.00 | 0.00 | 0.00 | 79 | 1016.4 |
| 20260905234801 | 78 | 58 | 3.5 | 8.7 | 0.00 | 0.00 | 0.00 | 79 | 1016.3 |
| 20260905234701 | 78 | 87 | 3.5 | 8.7 | 0.00 | 0.00 | 0.00 | 79 | 1016.3 |
| 20260905234601 | 78 | 171 | 1.7 | 8.7 | 0.00 | 0.00 | 0.00 | 79 | 1016.3 |
| 20260905234501 | 78 | 71 | 4.3 | 8.7 | 0.00 | 0.00 | 0.00 | 79 | 1016.4 |
| 20260905234401 | 79 | 208 | 0.9 | 8.7 | 0.00 | 0.00 | 0.00 | 79 | 1016.3 |
| 20260905234300 | 79 | 77 | 4.3 | 8.7 | 0.00 | 0.00 | 0.00 | 78 | 1016.3 |
| 20260905234201 | 79 | 75 | 3.5 | 8.7 | 0.00 | 0.00 | 0.00 | 78 | 1016.3 |
| 20260905234101 | 79 | 77 | 8.7 | 8.7 | 0.00 | 0.00 | 0.00 | 78 | 1016.3 |
| 20260905234002 | 79 | 109 | 7.0 | 7.0 | 0.00 | 0.00 | 0.00 | 78 | 1016.2 |
| 20260905233901 | 79 | 53 | 1.7 | 6.1 | 0.00 | 0.00 | 0.00 | 78 | 1016.3 |
| 20260905233801 | 79 | 161 | 0.9 | 6.1 | 0.00 | 0.00 | 0.00 | 78 | 1016.3 |
| 20260905233701 | 79 | 85 | 2.6 | 6.1 | 0.00 | 0.00 | 0.00 | 78 | 1016.3 |
| 20260905233501 | 79 | 109 | 3.5 | 7.0 | 0.00 | 0.00 | 0.00 | 78 | 1016.3 |
| 20260905233401 | 79 | 324 | 1.7 | 7.0 | 0.00 | 0.00 | 0.00 | 78 | 1016.3 |
| 20260905233304 | 79 | 93 | 0.0 | 7.0 | 0.00 | 0.00 | 0.00 | 78 | 1016.2 |
| 20260905233201 | 79 | 125 | 0.9 | 7.0 | 0.00 | 0.00 | 0.00 | 78 | 1016.2 |
| 20260905233101 | 79 | 88 | 0.9 | 7.0 | 0.00 | 0.00 | 0.00 | 78 | 1016.3 |
| 20260905233001 | 79 | 165 | 2.6 | 7.0 | 0.00 | 0.00 | 0.00 | 78 | 1016.3 |
| 20260905232901 | 79 | 101 | 3.5 | 7.0 | 0.00 | 0.00 | 0.00 | 78 | 1016.4 |
| 20260905232801 | 79 | 96 | 4.3 | 7.0 | 0.00 | 0.00 | 0.00 | 78 | 1016.3 |
| 20260905232701 | 79 | 171 | 3.5 | 7.0 | 0.00 | 0.00 | 0.00 | 77 | 1016.3 |
| 20260905232601 | 80 | 82 | 7.0 | 7.0 | 0.00 | 0.00 | 0.00 | 77 | 1016.4 |
| 20260905232501 | 80 | 76 | 0.9 | 5.2 | 0.00 | 0.00 | 0.00 | 77 | 1016.4 |
| 20260905232401 | 80 | 67 | 1.7 | 6.1 | 0.00 | 0.00 | 0.00 | 77 | 1016.4 |
| 20260905232101 | 80 | 89 | 0.9 | 7.0 | 0.00 | 0.00 | 0.00 | 76 | 1016.3 |
| 20260905232001 | 80 | 108 | 0.0 | 7.0 | 0.00 | 0.00 | 0.00 | 76 | 1016.4 |
| 20260905231901 | 80 | 140 | 0.9 | 7.0 | 0.00 | 0.00 | 0.00 | 76 | 1016.4 |
| 20260905231802 | 80 | 139 | 2.6 | 7.0 | 0.00 | 0.00 | 0.00 | 75 | 1016.4 |
| 20260905231601 | 81 | 149 | 2.6 | 7.0 | 0.00 | 0.00 | 0.00 | 75 | 1016.3 |
| 20260905231501 | 81 | 106 | 2.6 | 7.0 | 0.00 | 0.00 | 0.00 | 75 | 1016.4 |
| 20260905231401 | 81 | 112 | 1.7 | 7.0 | 0.00 | 0.00 | 0.00 | 74 | 1016.4 |
| 20260905231301 | 81 | 89 | 4.3 | 7.0 | 0.00 | 0.00 | 0.00 | 73 | 1016.4 |
| 20260905231201 | 81 | 132 | 4.3 | 8.7 | 0.00 | 0.00 | 0.00 | 73 | 1016.3 |
| 20260905231101 | 82 | 152 | 1.7 | 8.7 | 0.00 | 0.00 | 0.00 | 73 | 1016.4 |
| 20260905230901 | 82 | 88 | 1.7 | 8.7 | 0.00 | 0.00 | 0.00 | 73 | 1016.3 |
| 20260905230801 | 82 | 64 | 0.9 | 8.7 | 0.00 | 0.00 | 0.00 | 72 | 1016.3 |
| 20260905230701 | 83 | 117 | 5.2 | 8.7 | 0.00 | 0.00 | 0.00 | 71 | 1016.3 |
| 20260905230601 | 83 | 103 | 6.1 | 8.7 | 0.00 | 0.00 | 0.00 | 71 | 1016.2 |
| 20260905230501 | 83 | 118 | 3.5 | 8.7 | 0.00 | 0.00 | 0.00 | 71 | 1016.3 |
| 20260905230400 | 83 | 112 | 1.7 | 8.7 | 0.00 | 0.00 | 0.00 | 70 | 1016.2 |
| 20260905230301 | 83 | 130 | 3.5 | 8.7 | 0.00 | 0.00 | 0.00 | 70 | 1016.2 |
| 20260905230101 | 83 | 126 | 0.9 | 4.3 | 0.00 | 0.00 | 0.00 | 70 | 1016.1 |
| 20260905230002 | 83 | 312 | 0.9 | 4.3 | 0.00 | 0.00 | 0.00 | 69 | 1016.2 |
| 20260905225901 | 83 | 124 | 2.6 | 4.3 | 0.00 | 0.00 | 0.00 | 70 | 1016.2 |
| 20260905225801 | 83 | 134 | 0.0 | 4.3 | 0.00 | 0.00 | 0.00 | 69 | 1016.1 |
| 20260905225601 | 83 | 115 | 0.9 | 3.5 | 0.00 | 0.00 | 0.00 | 69 | 1016.1 |
| 20260905225501 | 83 | 108 | 0.9 | 3.5 | 0.00 | 0.00 | 0.00 | 69 | 1016.1 |
| 20260905225401 | 83 | 11 | 0.0 | 3.5 | 0.00 | 0.00 | 0.00 | 69 | 1016.0 |
| 20260905225305 | 83 | 11 | 1.7 | 3.5 | 0.00 | 0.00 | 0.00 | 69 | 1016.0 |
| 20260905225201 | 83 | 285 | 0.9 | 3.5 | 0.00 | 0.00 | 0.00 | 68 | 1016.1 |
| 20260905225101 | 83 | 260 | 0.9 | 3.5 | 0.00 | 0.00 | 0.00 | 68 | 1016.0 |
| 20260905225001 | 83 | 32 | 2.6 | 3.5 | 0.00 | 0.00 | 0.00 | 68 | 1016.0 |
| 20260905224901 | 84 | 38 | 0.0 | 2.6 | 0.00 | 0.00 | 0.00 | 68 | 1016.0 |
| 20260905224801 | 84 | 292 | 0.9 | 2.6 | 0.00 | 0.00 | 0.00 | 68 | 1016.0 |
| 20260905224700 | 84 | 146 | 0.0 | 3.5 | 0.00 | 0.00 | 0.00 | 67 | 1016.0 |
| 20260905224601 | 84 | 68 | 1.7 | 4.3 | 0.00 | 0.00 | 0.00 | 68 | 1016.0 |
| 20260905224501 | 84 | 226 | 0.0 | 4.3 | 0.00 | 0.00 | 0.00 | 68 | 1015.9 |
| 20260905224401 | 84 | 354 | 0.9 | 4.3 | 0.00 | 0.00 | 0.00 | 69 | 1016.0 |
| 20260905224301 | 84 | 113 | 0.0 | 4.3 | 0.00 | 0.00 | 0.00 | 69 | 1015.9 |
| 20260905224201 | 83 | 1 | 0.9 | 4.3 | 0.00 | 0.00 | 0.00 | 69 | 1015.9 |
| 20260905224101 | 83 | 99 | 0.0 | 4.3 | 0.00 | 0.00 | 0.00 | 69 | 1015.9 |
| 20260905224001 | 83 | 158 | 0.0 | 5.2 | 0.00 | 0.00 | 0.00 | 68 | 1015.9 |
| 20260905223901 | 83 | 87 | 0.9 | 5.2 | 0.00 | 0.00 | 0.00 | 68 | 1015.9 |
| 20260905223801 | 83 | 74 | 1.7 | 5.2 | 0.00 | 0.00 | 0.00 | 68 | 1015.9 |
| 20260905223701 | 84 | 271 | 1.7 | 5.2 | 0.00 | 0.00 | 0.00 | 68 | 1015.9 |
| 20260905223601 | 84 | 337 | 1.7 | 5.2 | 0.00 | 0.00 | 0.00 | 68 | 1015.8 |
| 20260905223501 | 84 | 19 | 1.7 | 5.2 | 0.00 | 0.00 | 0.00 | 69 | 1015.9 |
| 20260905223402 | 84 | 32 | 0.9 | 5.2 | 0.00 | 0.00 | 0.00 | 68 | 1015.9 |
| 20260905223302 | 84 | 39 | 1.7 | 5.2 | 0.00 | 0.00 | 0.00 | 68 | 1015.8 |
| 20260905223201 | 84 | 7 | 3.5 | 5.2 | 0.00 | 0.00 | 0.00 | 69 | 1015.9 |
| 20260905223101 | 84 | 44 | 0.9 | 5.2 | 0.00 | 0.00 | 0.00 | 68 | 1015.9 |
| 20260905223001 | 84 | 32 | 0.0 | 5.2 | 0.00 | 0.00 | 0.00 | 69 | 1015.8 |
| 20260905222901 | 84 | 214 | 0.0 | 5.2 | 0.00 | 0.00 | 0.00 | 69 | 1015.8 |
| 20260905222801 | 84 | 354 | 1.7 | 5.2 | 0.00 | 0.00 | 0.00 | 69 | 1015.8 |
| 20260905222700 | 84 | 3 | 1.7 | 5.2 | 0.00 | 0.00 | 0.00 | 68 | 1015.8 |
| 20260905222602 | 84 | 33 | 2.6 | 5.2 | 0.00 | 0.00 | 0.00 | 68 | 1015.8 |
| 20260905222501 | 84 | 122 | 4.3 | 5.2 | 0.00 | 0.00 | 0.00 | 69 | 1015.9 |
| 20260905222201 | 84 | 55 | 2.6 | 5.2 | 0.00 | 0.00 | 0.00 | 69 | 1015.9 |
| 20260905222101 | 84 | 331 | 0.9 | 5.2 | 0.00 | 0.00 | 0.00 | 69 | 1015.8 |
| 20260905222001 | 84 | 29 | 1.7 | 5.2 | 0.00 | 0.00 | 0.00 | 69 | 1015.7 |
| 20260905221901 | 84 | 23 | 0.9 | 5.2 | 0.00 | 0.00 | 0.00 | 69 | 1015.8 |
| 20260905221800 | 84 | 107 | 0.0 | 5.2 | 0.00 | 0.00 | 0.00 | 68 | 1015.8 |
| 20260905221702 | 84 | 145 | 0.0 | 5.2 | 0.00 | 0.00 | 0.00 | 69 | 1015.8 |
| 20260905221601 | 84 | 357 | 0.9 | 5.2 | 0.00 | 0.00 | 0.00 | 68 | 1015.7 |
| 20260905221401 | 84 | 48 | 0.9 | 5.2 | 0.00 | 0.00 | 0.00 | 68 | 1015.7 |
| 20260905221301 | 84 | 1 | 3.5 | 5.2 | 0.00 | 0.00 | 0.00 | 69 | 1015.7 |
| 20260905221201 | 84 | 201 | 0.0 | 2.6 | 0.00 | 0.00 | 0.00 | 69 | 1015.7 |
| 20260905221101 | 84 | 295 | 0.0 | 2.6 | 0.00 | 0.00 | 0.00 | 70 | 1015.7 |
| 20260905221001 | 84 | 11 | 0.9 | 2.6 | 0.00 | 0.00 | 0.00 | 71 | 1015.7 |
| 20260905220901 | 84 | 110 | 0.0 | 2.6 | 0.00 | 0.00 | 0.00 | 71 | 1015.7 |
| 20260905220802 | 84 | 30 | 1.7 | 3.5 | 0.00 | 0.00 | 0.00 | 71 | 1015.8 |
| 20260905220701 | 84 | 116 | 2.6 | 3.5 | 0.00 | 0.00 | 0.00 | 71 | 1015.8 |
| 20260905220602 | 84 | 22 | 0.0 | 3.5 | 0.00 | 0.00 | 0.00 | 71 | 1015.9 |
| 20260905220401 | 84 | 308 | 0.9 | 3.5 | 0.00 | 0.00 | 0.00 | 71 | 1015.8 |
| 20260905220301 | 84 | 75 | 0.0 | 3.5 | 0.00 | 0.00 | 0.00 | 71 | 1015.8 |
| 20260905215901 | 84 | 87 | 2.6 | 5.2 | 0.00 | 0.00 | 0.00 | 70 | 1015.8 |
| 20260905215801 | 84 | 23 | 0.9 | 5.2 | 0.00 | 0.00 | 0.00 | 70 | 1015.8 |
| 20260905215501 | 84 | 125 | 0.0 | 7.0 | 0.00 | 0.00 | 0.00 | 70 | 1015.9 |
| 20260905215305 | 84 | 131 | 0.9 | 7.0 | 0.00 | 0.00 | 0.00 | 70 | 1015.9 |
| 20260905215201 | 84 | 122 | 0.0 | 7.0 | 0.00 | 0.00 | 0.00 | 71 | 1015.8 |
| 20260905215101 | 84 | 108 | 2.6 | 7.0 | 0.00 | 0.00 | 0.00 | 70 | 1015.8 |
| 20260905214901 | 84 | 63 | 0.9 | 7.0 | 0.00 | 0.00 | 0.00 | 70 | 1015.9 |
| 20260905214801 | 84 | 138 | 2.6 | 7.0 | 0.00 | 0.00 | 0.00 | 70 | 1015.9 |
| 20260905214701 | 84 | 79 | 7.0 | 7.0 | 0.00 | 0.00 | 0.00 | 70 | 1015.8 |
| 20260905214601 | 84 | 102 | 3.5 | 7.0 | 0.00 | 0.00 | 0.00 | 70 | 1015.8 |
| 20260905214401 | 84 | 114 | 0.9 | 3.5 | 0.00 | 0.00 | 0.00 | 70 | 1015.8 |
| 20260905214301 | 84 | 99 | 0.9 | 3.5 | 0.00 | 0.00 | 0.00 | 71 | 1016.0 |
| 20260905214202 | 84 | 20 | 1.7 | 6.1 | 0.00 | 0.00 | 0.00 | 71 | 1015.9 |
| 20260905214102 | 84 | 110 | 0.9 | 6.1 | 0.00 | 0.00 | 0.00 | 71 | 1015.9 |
| 20260905214001 | 84 | 328 | 2.6 | 6.1 | 0.00 | 0.00 | 0.00 | 71 | 1016.0 |
| 20260905213901 | 84 | 94 | 0.9 | 6.1 | 0.00 | 0.00 | 0.00 | 71 | 1016.0 |
| 20260905213801 | 84 | 356 | 1.7 | 7.0 | 0.00 | 0.00 | 0.00 | 71 | 1016.0 |
| 20260905213701 | 84 | 191 | 0.0 | 7.0 | 0.00 | 0.00 | 0.00 | 72 | 1016.0 |
| 20260905213601 | 84 | 155 | 1.7 | 7.0 | 0.00 | 0.00 | 0.00 | 71 | 1015.9 |
| 20260905213500 | 84 | 105 | 0.0 | 7.0 | 0.00 | 0.00 | 0.00 | 72 | 1015.9 |
| 20260905213302 | 84 | 29 | 0.0 | 7.0 | 0.00 | 0.00 | 0.00 | 72 | 1016.0 |
| 20260905213201 | 84 | 127 | 0.0 | 7.0 | 0.00 | 0.00 | 0.00 | 71 | 1016.0 |
| 20260905213102 | 84 | 187 | 0.9 | 7.0 | 0.00 | 0.00 | 0.00 | 71 | 1016.1 |
| 20260905213001 | 84 | 4 | 2.6 | 7.0 | 0.00 | 0.00 | 0.00 | 70 | 1016.0 |
| 20260905212901 | 84 | 3 | 0.0 | 5.2 | 0.00 | 0.00 | 0.00 | 72 | 1016.0 |
| 20260905212801 | 84 | 356 | 0.9 | 5.2 | 0.00 | 0.00 | 0.00 | 71 | 1015.9 |
| 20260905212400 | 84 | 264 | 0.9 | 4.3 | 0.00 | 0.00 | 0.00 | 72 | 1015.9 |
| 20260905212301 | 83 | 18 | 1.7 | 4.3 | 0.00 | 0.00 | 0.00 | 73 | 1015.9 |
| 20260905212201 | 83 | 41 | 1.7 | 4.3 | 0.00 | 0.00 | 0.00 | 75 | 1015.9 |
| 20260905212101 | 83 | 54 | 0.0 | 4.3 | 0.00 | 0.00 | 0.00 | 75 | 1015.9 |
| 20260905211902 | 83 | 92 | 0.0 | 4.3 | 0.00 | 0.00 | 0.00 | 74 | 1015.9 |
| 20260905211701 | 83 | 311 | 0.9 | 5.2 | 0.00 | 0.00 | 0.00 | 73 | 1015.9 |
| 20260905211600 | 83 | 87 | 3.5 | 7.0 | 0.00 | 0.00 | 0.00 | 73 | 1015.9 |
| 20260905211501 | 83 | 223 | 0.0 | 7.0 | 0.00 | 0.00 | 0.00 | 72 | 1016.0 |
| 20260905211401 | 83 | 145 | 0.0 | 7.0 | 0.00 | 0.00 | 0.00 | 72 | 1015.9 |
| 20260905211301 | 83 | 20 | 1.7 | 7.0 | 0.00 | 0.00 | 0.00 | 72 | 1015.9 |
| 20260905211202 | 83 | 110 | 0.9 | 7.0 | 0.00 | 0.00 | 0.00 | 72 | 1015.9 |
| 20260905211101 | 84 | 313 | 1.7 | 7.0 | 0.00 | 0.00 | 0.00 | 73 | 1016.0 |
| 20260905210901 | 84 | 105 | 1.7 | 7.0 | 0.00 | 0.00 | 0.00 | 71 | 1015.9 |
| 20260905210801 | 84 | 99 | 2.6 | 4.3 | 0.00 | 0.00 | 0.00 | 72 | 1015.9 |
| 20260905210701 | 84 | 142 | 0.9 | 4.3 | 0.00 | 0.00 | 0.00 | 72 | 1015.9 |
| 20260905210602 | 84 | 259 | 0.9 | 4.3 | 0.00 | 0.00 | 0.00 | 72 | 1015.9 |
| 20260905210401 | 84 | 70 | 0.9 | 4.3 | 0.00 | 0.00 | 0.00 | 71 | 1015.9 |
| 20260905210302 | 84 | 358 | 2.6 | 4.3 | 0.00 | 0.00 | 0.00 | 72 | 1015.9 |
| 20260905210202 | 84 | 115 | 0.0 | 4.3 | 0.00 | 0.00 | 0.00 | 72 | 1016.0 |
| 20260905210002 | 84 | 155 | 0.9 | 4.3 | 0.00 | 0.00 | 0.00 | 73 | 1016.1 |
| 20260905205803 | 83 | 127 | 0.0 | 4.3 | 0.00 | 0.00 | 0.00 | 73 | 1016.1 |
| 20260905205702 | 83 | 103 | 0.9 | 4.3 | 0.00 | 0.00 | 0.00 | 73 | 1016.1 |
| 20260905205602 | 83 | 212 | 0.0 | 4.3 | 0.00 | 0.00 | 0.00 | 73 | 1016.2 |
| 20260905205502 | 83 | 136 | 1.7 | 4.3 | 0.00 | 0.00 | 0.00 | 73 | 1016.1 |
| 20260905205402 | 83 | 117 | 1.7 | 4.3 | 0.00 | 0.00 | 0.00 | 72 | 1016.1 |
| 20260905205306 | 83 | 19 | 2.6 | 4.3 | 0.00 | 0.00 | 0.00 | 72 | 1016.2 |
| 20260905205202 | 83 | 356 | 1.7 | 4.3 | 0.00 | 0.00 | 0.00 | 72 | 1016.2 |
| 20260905205101 | 83 | 34 | 1.7 | 4.3 | 0.00 | 0.00 | 0.00 | 72 | 1016.3 |
| 20260905205002 | 83 | 189 | 2.6 | 4.3 | 0.00 | 0.00 | 0.00 | 73 | 1016.3 |
| 20260905204903 | 83 | 21 | 2.6 | 2.6 | 0.00 | 0.00 | 0.00 | 73 | 1016.4 |
| 20260905204802 | 83 | 285 | 0.9 | 2.6 | 0.00 | 0.00 | 0.00 | 74 | 1016.3 |
| 20260905204702 | 83 | 112 | 0.9 | 2.6 | 0.00 | 0.00 | 0.00 | 74 | 1016.3 |
| 20260905204602 | 83 | 350 | 1.7 | 5.2 | 0.00 | 0.00 | 0.00 | 74 | 1016.2 |
| 20260905204503 | 83 | 91 | 0.9 | 5.2 | 0.00 | 0.00 | 0.00 | 73 | 1016.3 |
| 20260905204303 | 82 | 264 | 0.0 | 7.0 | 0.00 | 0.00 | 0.00 | 74 | 1016.3 |
| 20260905204203 | 82 | 329 | 0.9 | 7.0 | 0.00 | 0.00 | 0.00 | 74 | 1016.4 |
| 20260905204102 | 82 | 88 | 1.7 | 7.0 | 0.00 | 0.00 | 0.00 | 74 | 1016.4 |
| 20260905204002 | 82 | 316 | 1.7 | 7.0 | 0.00 | 0.00 | 0.00 | 75 | 1016.4 |
| 20260905203803 | 82 | 70 | 2.6 | 7.0 | 0.00 | 0.00 | 0.00 | 74 | 1016.4 |
| 20260905203702 | 82 | 46 | 5.2 | 7.0 | 0.00 | 0.00 | 0.00 | 74 | 1016.5 |
| 20260905203603 | 82 | 15 | 0.9 | 7.0 | 0.00 | 0.00 | 0.00 | 73 | 1016.5 |
| 20260905203503 | 83 | 27 | 7.0 | 7.0 | 0.00 | 0.00 | 0.00 | 74 | 1016.5 |
| 20260905203403 | 83 | 256 | 0.0 | 4.3 | 0.00 | 0.00 | 0.00 | 74 | 1016.5 |
| 20260905203302 | 83 | 99 | 0.9 | 4.3 | 0.00 | 0.00 | 0.00 | 74 | 1016.5 |
| 20260905203203 | 83 | 316 | 0.0 | 4.3 | 0.00 | 0.00 | 0.00 | 74 | 1016.5 |
| 20260905203101 | 83 | 34 | 1.7 | 5.2 | 0.00 | 0.00 | 0.00 | 74 | 1016.5 |
| 20260905203004 | 83 | 8 | 1.7 | 5.2 | 0.00 | 0.00 | 0.00 | 74 | 1016.5 |
| 20260905202902 | 83 | 64 | 0.9 | 5.2 | 0.00 | 0.00 | 0.00 | 73 | 1016.5 |
| 20260905202802 | 83 | 349 | 0.9 | 5.2 | 0.00 | 0.00 | 0.00 | 74 | 1016.5 |
| 20260905202702 | 83 | 306 | 1.7 | 5.2 | 0.00 | 0.00 | 0.00 | 73 | 1016.5 |
| 20260905202602 | 83 | 23 | 3.5 | 5.2 | 0.00 | 0.00 | 0.00 | 73 | 1016.4 |
| 20260905202503 | 83 | 4 | 1.7 | 5.2 | 0.00 | 0.00 | 0.00 | 74 | 1016.5 |
| 20260905202402 | 83 | 24 | 0.9 | 5.2 | 0.00 | 0.00 | 0.00 | 73 | 1016.6 |
| 20260905202306 | 83 | 37 | 0.9 | 5.2 | 0.00 | 0.00 | 0.00 | 72 | 1016.4 |
| 20260905202203 | 84 | 30 | 1.7 | 5.2 | 0.00 | 0.00 | 0.00 | 72 | 1016.5 |
| 20260905202102 | 84 | 164 | 0.9 | 5.2 | 0.00 | 0.00 | 0.00 | 72 | 1016.4 |
| 20260905202002 | 84 | 30 | 2.6 | 5.2 | 0.00 | 0.00 | 0.00 | 73 | 1016.4 |
| 20260905201903 | 84 | 16 | 0.0 | 5.2 | 0.00 | 0.00 | 0.00 | 73 | 1016.5 |
| 20260905201803 | 84 | 347 | 1.7 | 5.2 | 0.00 | 0.00 | 0.00 | 72 | 1016.5 |
| 20260905201503 | 83 | 276 | 1.7 | 5.2 | 0.00 | 0.00 | 0.00 | 74 | 1016.5 |
| 20260905201203 | 83 | 125 | 5.2 | 5.2 | 0.00 | 0.00 | 0.00 | 75 | 1016.4 |
| 20260905200902 | 83 | 132 | 0.9 | 5.2 | 0.00 | 0.00 | 0.00 | 74 | 1016.4 |
| 20260905200802 | 83 | 15 | 0.9 | 8.7 | 0.00 | 0.00 | 0.00 | 75 | 1016.5 |
| 20260905200702 | 83 | 87 | 0.9 | 8.7 | 0.00 | 0.00 | 0.00 | 74 | 1016.4 |
| 20260905200602 | 83 | 343 | 0.9 | 8.7 | 0.00 | 0.00 | 0.00 | 74 | 1016.4 |
| 20260905200502 | 83 | 333 | 1.7 | 8.7 | 0.00 | 0.00 | 0.00 | 74 | 1016.5 |
| 20260905200402 | 83 | 355 | 1.7 | 8.7 | 0.00 | 0.00 | 0.00 | 74 | 1016.5 |
| 20260905200203 | 83 | 191 | 0.9 | 8.7 | 0.00 | 0.00 | 0.00 | 74 | 1016.4 |
| 20260905195901 | 83 | 327 | 4.3 | 7.0 | 0.00 | 0.00 | 0.00 | 73 | 1016.5 |
| 20260905195801 | 83 | 202 | 1.7 | 7.0 | 0.00 | 0.00 | 0.00 | 73 | 1016.4 |
| 20260905195701 | 83 | 160 | 1.7 | 7.0 | 0.00 | 0.00 | 0.00 | 73 | 1016.3 |
| 20260905195602 | 83 | 308 | 0.9 | 6.1 | 0.00 | 0.00 | 0.00 | 72 | 1016.4 |
| 20260905195501 | 83 | 115 | 5.2 | 6.1 | 0.00 | 0.00 | 0.00 | 73 | 1016.3 |
| 20260905195306 | 84 | 91 | 1.7 | 8.7 | 0.00 | 0.00 | 0.00 | 73 | 1016.3 |
| 20260905195102 | 84 | 354 | 2.6 | 8.7 | 0.00 | 0.00 | 0.00 | 72 | 1016.4 |
| 20260905195001 | 84 | 346 | 0.0 | 8.7 | 0.00 | 0.00 | 0.00 | 73 | 1016.3 |
| 20260905194902 | 84 | 134 | 0.9 | 8.7 | 0.00 | 0.00 | 0.00 | 73 | 1016.4 |
| 20260905194801 | 84 | 129 | 0.9 | 8.7 | 0.00 | 0.00 | 0.00 | 72 | 1016.3 |
| 20260905194701 | 84 | 89 | 1.7 | 8.7 | 0.00 | 0.00 | 0.00 | 71 | 1016.3 |
| 20260905194602 | 85 | 30 | 1.7 | 8.7 | 0.00 | 0.00 | 0.00 | 71 | 1016.3 |
| 20260905194501 | 85 | 278 | 0.9 | 8.7 | 0.00 | 0.00 | 0.00 | 71 | 1016.3 |
| 20260905194402 | 85 | 6 | 7.0 | 7.0 | 0.00 | 0.00 | 0.00 | 72 | 1016.3 |
| 20260905194300 | 85 | 338 | 1.7 | 3.5 | 0.00 | 0.00 | 0.00 | 72 | 1016.2 |
| 20260905194201 | 85 | 59 | 0.9 | 5.2 | 0.00 | 0.00 | 0.00 | 72 | 1016.2 |
| 20260905193901 | 85 | 327 | 0.0 | 7.0 | 0.00 | 0.00 | 0.00 | 73 | 1016.1 |
| 20260905193801 | 85 | 73 | 3.5 | 7.0 | 0.00 | 0.00 | 0.00 | 73 | 1016.1 |
| 20260905193601 | 85 | 90 | 1.7 | 7.0 | 0.00 | 0.00 | 0.00 | 71 | 1016.1 |
| 20260905193502 | 85 | 136 | 1.7 | 7.0 | 0.00 | 0.00 | 0.00 | 70 | 1016.0 |
| 20260905193301 | 85 | 49 | 0.9 | 7.8 | 0.00 | 0.00 | 0.00 | 70 | 1016.1 |
| 20260905193201 | 86 | 94 | 0.9 | 7.8 | 0.00 | 0.00 | 0.00 | 69 | 1016.0 |
| 20260905193101 | 86 | 78 | 1.7 | 7.8 | 0.00 | 0.00 | 0.00 | 70 | 1016.1 |
| 20260905193002 | 86 | 91 | 0.9 | 7.8 | 0.00 | 0.00 | 0.00 | 70 | 1016.0 |
| 20260905192901 | 86 | 242 | 0.9 | 7.8 | 0.00 | 0.00 | 0.00 | 71 | 1016.1 |
| 20260905192801 | 86 | 79 | 1.7 | 7.8 | 0.00 | 0.00 | 0.00 | 71 | 1016.0 |
| 20260905192701 | 86 | 92 | 0.9 | 7.8 | 0.00 | 0.00 | 0.00 | 71 | 1016.0 |
| 20260905192601 | 86 | 300 | 0.9 | 7.8 | 0.00 | 0.00 | 0.00 | 71 | 1016.2 |
| 20260905192401 | 86 | 81 | 5.2 | 7.0 | 0.00 | 0.00 | 0.00 | 69 | 1016.1 |
| 20260905192301 | 86 | 122 | 2.6 | 7.0 | 0.00 | 0.00 | 0.00 | 70 | 1016.0 |
| 20260905192201 | 86 | 145 | 3.5 | 6.1 | 0.00 | 0.00 | 0.00 | 71 | 1016.0 |
| 20260905192101 | 86 | 115 | 0.0 | 3.5 | 0.00 | 0.00 | 0.00 | 71 | 1016.0 |
| 20260905192001 | 86 | 32 | 0.9 | 6.1 | 0.00 | 0.00 | 0.00 | 71 | 1016.1 |
| 20260905191800 | 86 | 10 | 0.9 | 6.1 | 0.00 | 0.00 | 0.00 | 69 | 1016.2 |
| 20260905191701 | 86 | 158 | 1.7 | 6.1 | 0.00 | 0.00 | 0.00 | 71 | 1016.1 |
| 20260905191602 | 86 | 206 | 0.9 | 6.1 | 0.00 | 0.00 | 0.00 | 70 | 1016.1 |
| 20260905191501 | 86 | 219 | 0.9 | 7.0 | 0.00 | 0.00 | 0.00 | 71 | 1016.0 |
| 20260905191402 | 86 | 89 | 1.7 | 7.0 | 0.00 | 0.00 | 0.00 | 71 | 1016.1 |
| 20260905191301 | 86 | 161 | 2.6 | 7.0 | 0.00 | 0.00 | 0.00 | 71 | 1016.2 |
| 20260905191201 | 86 | 31 | 2.6 | 7.0 | 0.00 | 0.00 | 0.00 | 71 | 1016.1 |
| 20260905191001 | 86 | 311 | 0.9 | 7.0 | 0.00 | 0.00 | 0.00 | 71 | 1016.1 |
| 20260905190901 | 86 | 22 | 1.7 | 7.0 | 0.00 | 0.00 | 0.00 | 71 | 1016.1 |
| 20260905190800 | 86 | 94 | 3.5 | 7.0 | 0.00 | 0.00 | 0.00 | 72 | 1016.1 |
| 20260905190701 | 86 | 359 | 2.6 | 7.0 | 0.00 | 0.00 | 0.00 | 72 | 1016.1 |
| 20260905190501 | 86 | 203 | 0.9 | 6.1 | 0.00 | 0.00 | 0.00 | 71 | 1016.1 |
| 20260905190402 | 86 | 103 | 1.7 | 6.1 | 0.00 | 0.00 | 0.00 | 71 | 1016.2 |
| 20260905190300 | 86 | 122 | 1.7 | 5.2 | 0.00 | 0.00 | 0.00 | 72 | 1016.2 |
| 20260905190002 | 86 | 358 | 0.9 | 7.0 | 0.00 | 0.00 | 0.00 | 72 | 1016.3 |
| 20260905185802 | 86 | 23 | 0.9 | 7.0 | 0.00 | 0.00 | 0.00 | 72 | 1016.2 |
| 20260905185501 | 86 | 316 | 1.7 | 7.0 | 0.00 | 0.00 | 0.00 | 72 | 1016.2 |
| 20260905185401 | 86 | 146 | 0.9 | 7.0 | 0.00 | 0.00 | 0.00 | 73 | 1016.1 |
| 20260905185101 | 85 | 62 | 5.2 | 7.0 | 0.00 | 0.00 | 0.00 | 74 | 1016.1 |
| 20260905185001 | 85 | 45 | 1.7 | 8.7 | 0.00 | 0.00 | 0.00 | 73 | 1016.2 |
| 20260905184900 | 85 | 25 | 5.2 | 8.7 | 0.00 | 0.00 | 0.00 | 73 | 1016.2 |
| 20260905184802 | 85 | 333 | 0.9 | 8.7 | 0.00 | 0.00 | 0.00 | 73 | 1016.2 |
| 20260905184701 | 85 | 355 | 0.9 | 8.7 | 0.00 | 0.00 | 0.00 | 72 | 1016.2 |
| 20260905184601 | 85 | 203 | 0.0 | 8.7 | 0.00 | 0.00 | 0.00 | 72 | 1016.2 |
| 20260905184502 | 85 | 276 | 0.9 | 8.7 | 0.00 | 0.00 | 0.00 | 73 | 1016.2 |
| 20260905184401 | 86 | 82 | 6.1 | 8.7 | 0.00 | 0.00 | 0.00 | 71 | 1016.3 |
| 20260905184201 | 86 | 134 | 6.1 | 6.1 | 0.00 | 0.00 | 0.00 | 71 | 1016.2 |
| 20260905184101 | 86 | 150 | 0.9 | 6.1 | 0.00 | 0.00 | 0.00 | 71 | 1016.3 |
| 20260905184001 | 87 | 29 | 6.1 | 6.1 | 0.00 | 0.00 | 0.00 | 72 | 1016.3 |
| 20260905183901 | 86 | 342 | 5.2 | 5.2 | 0.00 | 0.00 | 0.00 | 72 | 1016.2 |
| 20260905183801 | 86 | 347 | 0.9 | 5.2 | 0.00 | 0.00 | 0.00 | 75 | 1016.2 |
| 20260905183701 | 86 | 141 | 0.0 | 5.2 | 0.00 | 0.00 | 0.00 | 74 | 1016.3 |
| 20260905183602 | 86 | 143 | 0.9 | 5.2 | 0.00 | 0.00 | 0.00 | 74 | 1016.3 |
| 20260905183501 | 86 | 114 | 0.9 | 5.2 | 0.00 | 0.00 | 0.00 | 73 | 1016.3 |
| 20260905183404 | 86 | 91 | 4.3 | 5.2 | 0.00 | 0.00 | 0.00 | 74 | 1016.3 |
| 20260905183302 | 86 | 29 | 2.6 | 5.2 | 0.00 | 0.00 | 0.00 | 74 | 1016.4 |
| 20260905183201 | 85 | 25 | 0.0 | 4.3 | 0.00 | 0.00 | 0.00 | 75 | 1016.3 |
| 20260905183101 | 85 | 234 | 0.0 | 4.3 | 0.00 | 0.00 | 0.00 | 74 | 1016.4 |
| 20260905183001 | 85 | 207 | 0.9 | 4.3 | 0.00 | 0.00 | 0.00 | 75 | 1016.3 |
| 20260905182701 | 85 | 6 | 2.6 | 4.3 | 0.00 | 0.00 | 0.00 | 75 | 1016.4 |
| 20260905182401 | 85 | 264 | 0.0 | 3.5 | 0.00 | 0.00 | 0.00 | 74 | 1016.3 |
| 20260905182201 | 85 | 309 | 1.7 | 3.5 | 0.00 | 0.00 | 0.00 | 73 | 1016.3 |
| 20260905182101 | 85 | 11 | 1.7 | 3.5 | 0.00 | 0.00 | 0.00 | 73 | 1016.3 |
| 20260905182001 | 85 | 226 | 1.7 | 4.3 | 0.00 | 0.00 | 0.00 | 73 | 1016.3 |
| 20260905181800 | 85 | 134 | 0.9 | 4.3 | 0.00 | 0.00 | 0.00 | 73 | 1016.3 |
| 20260905181600 | 86 | 115 | 0.9 | 4.3 | 0.00 | 0.00 | 0.00 | 73 | 1016.2 |
| 20260905181501 | 86 | 1 | 1.7 | 4.3 | 0.00 | 0.00 | 0.00 | 72 | 1016.2 |
| 20260905181301 | 86 | 155 | 2.6 | 4.3 | 0.00 | 0.00 | 0.00 | 72 | 1016.2 |
| 20260905181004 | 86 | 117 | 0.0 | 2.6 | 0.00 | 0.00 | 0.00 | 72 | 1016.3 |
| 20260905180901 | 87 | 148 | 1.7 | 2.6 | 0.00 | 0.00 | 0.00 | 72 | 1016.2 |
| 20260905180803 | 87 | 330 | 0.9 | 2.6 | 0.00 | 0.00 | 0.00 | 73 | 1016.2 |
| 20260905180701 | 87 | 30 | 0.0 | 2.6 | 0.00 | 0.00 | 0.00 | 73 | 1016.2 |
| 20260905180501 | 86 | 91 | 0.9 | 2.6 | 0.00 | 0.00 | 0.00 | 72 | 1016.2 |
| 20260905180404 | 87 | 32 | 0.9 | 2.6 | 0.00 | 0.00 | 0.00 | 73 | 1016.2 |
| 20260905180202 | 87 | 17 | 0.9 | 6.1 | 0.00 | 0.00 | 0.00 | 72 | 1016.3 |
| 20260905180005 | 87 | 44 | 0.0 | 6.1 | 0.00 | 0.00 | 0.00 | 71 | 1016.2 |
| 20260905175902 | 87 | 110 | 0.0 | 6.1 | 0.00 | 0.00 | 0.00 | 71 | 1016.3 |
| 20260905175801 | 87 | 76 | 0.0 | 6.1 | 0.00 | 0.00 | 0.00 | 71 | 1016.2 |
| 20260905175701 | 87 | 354 | 1.7 | 6.1 | 0.00 | 0.00 | 0.00 | 72 | 1016.2 |
| 20260905175501 | 87 | 352 | 1.7 | 6.1 | 0.00 | 0.00 | 0.00 | 73 | 1016.2 |
| 20260905175401 | 87 | 357 | 0.0 | 6.1 | 0.00 | 0.00 | 0.00 | 72 | 1016.2 |
| 20260905175306 | 86 | 356 | 1.7 | 3.5 | 0.00 | 0.00 | 0.00 | 73 | 1016.1 |
| 20260905175202 | 86 | 46 | 2.6 | 3.5 | 0.00 | 0.00 | 0.00 | 73 | 1016.1 |
| 20260905175103 | 86 | 130 | 0.9 | 3.5 | 0.00 | 0.00 | 0.00 | 74 | 1016.1 |
| 20260905175004 | 86 | 30 | 0.0 | 3.5 | 0.00 | 0.00 | 0.00 | 73 | 1016.1 |
| 20260905174903 | 86 | 119 | 0.0 | 3.5 | 0.00 | 0.00 | 0.00 | 73 | 1016.1 |
| 20260905174804 | 86 | 163 | 0.0 | 3.5 | 0.00 | 0.00 | 0.00 | 73 | 1016.0 |
| 20260905174704 | 86 | 98 | 1.7 | 3.5 | 0.00 | 0.00 | 0.00 | 73 | 1016.0 |
| 20260905174601 | 86 | 94 | 0.9 | 3.5 | 0.00 | 0.00 | 0.00 | 72 | 1016.1 |
| 20260905174501 | 86 | 101 | 3.5 | 3.5 | 0.00 | 0.00 | 0.00 | 74 | 1016.1 |
| 20260905174402 | 86 | 106 | 0.0 | 3.5 | 0.00 | 0.00 | 0.00 | 72 | 1016.1 |
| 20260905174301 | 86 | 27 | 0.9 | 3.5 | 0.00 | 0.00 | 0.00 | 73 | 1016.2 |
| 20260905174201 | 86 | 339 | 0.0 | 3.5 | 0.00 | 0.00 | 0.00 | 71 | 1016.2 |
| 20260905174103 | 86 | 33 | 1.7 | 3.5 | 0.00 | 0.00 | 0.00 | 72 | 1016.1 |
| 20260905173909 | 86 | 321 | 0.9 | 7.0 | 0.00 | 0.00 | 0.00 | 72 | 1016.1 |
| 20260905173801 | 86 | 64 | 1.7 | 7.0 | 0.00 | 0.00 | 0.00 | 72 | 1016.1 |
| 20260905173700 | 86 | 188 | 0.9 | 7.0 | 0.00 | 0.00 | 0.00 | 72 | 1016.1 |
| 20260905173603 | 86 | 59 | 0.9 | 7.0 | 0.00 | 0.00 | 0.00 | 73 | 1016.1 |
| 20260905173503 | 86 | 330 | 0.9 | 7.0 | 0.00 | 0.00 | 0.00 | 73 | 1016.2 |
| 20260905173402 | 86 | 135 | 0.0 | 7.0 | 0.00 | 0.00 | 0.00 | 74 | 1016.2 |
| 20260905173302 | 86 | 61 | 0.9 | 7.0 | 0.00 | 0.00 | 0.00 | 75 | 1016.2 |
| 20260905173104 | 85 | 114 | 4.3 | 7.0 | 0.00 | 0.00 | 0.00 | 73 | 1016.2 |
| 20260905173004 | 85 | 117 | 0.9 | 5.2 | 0.00 | 0.00 | 0.00 | 75 | 1016.2 |
| 20260905172903 | 85 | 214 | 0.9 | 5.2 | 0.00 | 0.00 | 0.00 | 75 | 1016.2 |
| 20260905172802 | 85 | 4 | 0.0 | 5.2 | 0.00 | 0.00 | 0.00 | 75 | 1016.2 |
| 20260905172702 | 85 | 86 | 0.0 | 5.2 | 0.00 | 0.00 | 0.00 | 75 | 1016.2 |
| 20260905172602 | 85 | 10 | 1.7 | 5.2 | 0.00 | 0.00 | 0.00 | 75 | 1016.2 |
| 20260905172502 | 85 | 27 | 1.7 | 5.2 | 0.00 | 0.00 | 0.00 | 74 | 1016.2 |
| 20260905172305 | 85 | 349 | 0.0 | 4.3 | 0.00 | 0.00 | 0.00 | 74 | 1016.2 |
| 20260905172203 | 85 | 66 | 1.7 | 4.3 | 0.00 | 0.00 | 0.00 | 74 | 1016.2 |
| 20260905172102 | 85 | 102 | 3.5 | 7.0 | 0.00 | 0.00 | 0.00 | 75 | 1016.2 |
| 20260905172003 | 85 | 46 | 0.0 | 7.0 | 0.00 | 0.00 | 0.00 | 75 | 1016.1 |
| 20260905171901 | 85 | 46 | 0.0 | 7.0 | 0.00 | 0.00 | 0.00 | 76 | 1016.1 |
| 20260905171803 | 85 | 107 | 0.9 | 7.0 | 0.00 | 0.00 | 0.00 | 75 | 1016.1 |
| 20260905171701 | 85 | 22 | 2.6 | 7.0 | 0.00 | 0.00 | 0.00 | 75 | 1016.1 |
| 20260905171602 | 85 | 15 | 0.9 | 7.0 | 0.00 | 0.00 | 0.00 | 75 | 1016.2 |
| 20260905171504 | 85 | 202 | 0.9 | 7.0 | 0.00 | 0.00 | 0.00 | 74 | 1016.1 |
| 20260905171405 | 85 | 105 | 0.9 | 7.0 | 0.00 | 0.00 | 0.00 | 74 | 1016.2 |
| 20260905171303 | 85 | 122 | 2.6 | 7.0 | 0.00 | 0.00 | 0.00 | 73 | 1016.1 |
| 20260905171204 | 85 | 133 | 3.5 | 7.0 | 0.00 | 0.00 | 0.00 | 74 | 1016.1 |
| 20260905171101 | 85 | 187 | 1.7 | 6.1 | 0.00 | 0.00 | 0.00 | 74 | 1016.1 |
| 20260905171003 | 85 | 95 | 3.5 | 6.1 | 0.00 | 0.00 | 0.00 | 74 | 1016.1 |
| 20260905170902 | 85 | 114 | 1.7 | 4.3 | 0.00 | 0.00 | 0.00 | 75 | 1016.2 |
| 20260905170803 | 85 | 359 | 0.0 | 5.2 | 0.00 | 0.00 | 0.00 | 73 | 1016.2 |
| 20260905170703 | 85 | 340 | 1.7 | 5.2 | 0.00 | 0.00 | 0.00 | 74 | 1016.3 |
| 20260905170602 | 85 | 122 | 1.7 | 5.2 | 0.00 | 0.00 | 0.00 | 74 | 1016.4 |
| 20260905170404 | 86 | 124 | 0.9 | 5.2 | 0.00 | 0.00 | 0.00 | 74 | 1016.3 |
| 20260905170301 | 85 | 1 | 2.6 | 5.2 | 0.00 | 0.00 | 0.00 | 75 | 1016.3 |
| 20260905170204 | 85 | 92 | 0.9 | 5.2 | 0.00 | 0.00 | 0.00 | 74 | 1016.3 |
| 20260905170104 | 85 | 87 | 0.0 | 5.2 | 0.00 | 0.00 | 0.00 | 74 | 1016.3 |
| 20260905165902 | 85 | 73 | 4.3 | 5.2 | 0.00 | 0.00 | 0.00 | 73 | 1016.4 |
| 20260905165802 | 85 | 75 | 3.5 | 3.5 | 0.00 | 0.00 | 0.00 | 75 | 1016.4 |
| 20260905165700 | 85 | 46 | 0.9 | 3.5 | 0.00 | 0.00 | 0.00 | 75 | 1016.4 |
| 20260905165601 | 85 | 30 | 1.7 | 3.5 | 0.00 | 0.00 | 0.00 | 75 | 1016.4 |
| 20260905165400 | 85 | 233 | 0.0 | 3.5 | 0.00 | 0.00 | 0.00 | 77 | 1016.4 |
| 20260905165306 | 85 | 359 | 0.9 | 3.5 | 0.00 | 0.00 | 0.00 | 76 | 1016.5 |
| 20260905165202 | 84 | 33 | 0.9 | 3.5 | 0.00 | 0.00 | 0.00 | 76 | 1016.4 |
| 20260905165102 | 84 | 255 | 0.9 | 4.3 | 0.00 | 0.00 | 0.00 | 76 | 1016.5 |
| 20260905165001 | 84 | 128 | 1.7 | 4.3 | 0.00 | 0.00 | 0.00 | 76 | 1016.4 |
| 20260905164901 | 84 | 46 | 0.9 | 4.3 | 0.00 | 0.00 | 0.00 | 75 | 1016.5 |
| 20260905164702 | 85 | 334 | 0.0 | 4.3 | 0.00 | 0.00 | 0.00 | 75 | 1016.5 |
| 20260905164601 | 85 | 311 | 1.7 | 4.3 | 0.00 | 0.00 | 0.00 | 74 | 1016.5 |
| 20260905164501 | 85 | 34 | 1.7 | 4.3 | 0.00 | 0.00 | 0.00 | 74 | 1016.6 |
| 20260905164401 | 85 | 28 | 3.5 | 5.2 | 0.00 | 0.00 | 0.00 | 74 | 1016.5 |
| 20260905164301 | 85 | 345 | 2.6 | 7.0 | 0.00 | 0.00 | 0.00 | 75 | 1016.5 |
| 20260905164201 | 85 | 276 | 1.7 | 7.0 | 0.00 | 0.00 | 0.00 | 77 | 1016.5 |
| 20260905164102 | 85 | 22 | 0.0 | 7.0 | 0.00 | 0.00 | 0.00 | 76 | 1016.5 |
| 20260905164001 | 85 | 5 | 1.7 | 7.0 | 0.00 | 0.00 | 0.00 | 76 | 1016.6 |
| 20260905163901 | 85 | 13 | 2.6 | 7.0 | 0.00 | 0.00 | 0.00 | 75 | 1016.5 |
| 20260905163801 | 85 | 3 | 0.9 | 7.0 | 0.00 | 0.00 | 0.00 | 76 | 1016.5 |
| 20260905163702 | 85 | 16 | 0.9 | 7.0 | 0.00 | 0.00 | 0.00 | 75 | 1016.5 |
| 20260905163601 | 85 | 89 | 1.7 | 7.0 | 0.00 | 0.00 | 0.00 | 74 | 1016.5 |
| 20260905163501 | 85 | 128 | 4.3 | 7.0 | 0.00 | 0.00 | 0.00 | 75 | 1016.5 |
| 20260905163301 | 85 | 155 | 1.7 | 3.5 | 0.00 | 0.00 | 0.00 | 76 | 1016.5 |
| 20260905163202 | 85 | 129 | 1.7 | 3.5 | 0.00 | 0.00 | 0.00 | 76 | 1016.5 |
| 20260905163000 | 85 | 60 | 0.9 | 3.5 | 0.00 | 0.00 | 0.00 | 75 | 1016.5 |
| 20260905162902 | 85 | 60 | 0.9 | 3.5 | 0.00 | 0.00 | 0.00 | 77 | 1016.5 |
| 20260905162801 | 85 | 41 | 1.7 | 3.5 | 0.00 | 0.00 | 0.00 | 75 | 1016.5 |
| 20260905162700 | 85 | 46 | 0.9 | 3.5 | 0.00 | 0.00 | 0.00 | 75 | 1016.5 |
| 20260905162601 | 85 | 165 | 0.9 | 3.5 | 0.00 | 0.00 | 0.00 | 76 | 1016.5 |
| 20260905162500 | 85 | 27 | 0.9 | 3.5 | 0.00 | 0.00 | 0.00 | 74 | 1016.5 |
| 20260905162401 | 85 | 12 | 0.0 | 3.5 | 0.00 | 0.00 | 0.00 | 75 | 1016.5 |
| 20260905162301 | 85 | 105 | 2.6 | 3.5 | 0.00 | 0.00 | 0.00 | 76 | 1016.5 |
| 20260905162200 | 85 | 273 | 1.7 | 4.3 | 0.00 | 0.00 | 0.00 | 76 | 1016.5 |
| 20260905162101 | 85 | 25 | 2.6 | 4.3 | 0.00 | 0.00 | 0.00 | 76 | 1016.5 |
| 20260905161902 | 85 | 99 | 0.9 | 4.3 | 0.00 | 0.00 | 0.00 | 77 | 1016.5 |
| 20260905161801 | 85 | 10 | 0.0 | 5.2 | 0.00 | 0.00 | 0.00 | 77 | 1016.5 |
| 20260905161601 | 85 | 1 | 0.9 | 5.2 | 0.00 | 0.00 | 0.00 | 76 | 1016.5 |
| 20260905161504 | 84 | 295 | 1.7 | 5.2 | 0.00 | 0.00 | 0.00 | 76 | 1016.5 |
| 20260905161401 | 85 | 130 | 1.7 | 5.2 | 0.00 | 0.00 | 0.00 | 77 | 1016.5 |
| 20260905161301 | 84 | 41 | 0.9 | 5.2 | 0.00 | 0.00 | 0.00 | 76 | 1016.5 |
| 20260905161201 | 84 | 63 | 1.7 | 5.2 | 0.00 | 0.00 | 0.00 | 76 | 1016.5 |
| 20260905161101 | 84 | 37 | 0.0 | 5.2 | 0.00 | 0.00 | 0.00 | 77 | 1016.5 |
| 20260905161000 | 84 | 59 | 1.7 | 4.3 | 0.00 | 0.00 | 0.00 | 77 | 1016.5 |
| 20260905160901 | 84 | 119 | 2.6 | 4.3 | 0.00 | 0.00 | 0.00 | 78 | 1016.5 |
| 20260905160801 | 84 | 6 | 0.9 | 5.2 | 0.00 | 0.00 | 0.00 | 77 | 1016.6 |
| 20260905160702 | 84 | 159 | 0.9 | 5.2 | 0.00 | 0.00 | 0.00 | 77 | 1016.5 |
| 20260905160601 | 84 | 151 | 0.9 | 5.2 | 0.00 | 0.00 | 0.00 | 77 | 1016.6 |
| 20260905160501 | 84 | 42 | 1.7 | 5.2 | 0.00 | 0.00 | 0.00 | 77 | 1016.5 |
| 20260905160401 | 84 | 20 | 4.3 | 5.2 | 0.00 | 0.00 | 0.00 | 78 | 1016.6 |
| 20260905160301 | 84 | 345 | 0.0 | 5.2 | 0.00 | 0.00 | 0.00 | 78 | 1016.5 |
| 20260905160201 | 84 | 35 | 0.9 | 5.2 | 0.00 | 0.00 | 0.00 | 77 | 1016.6 |
| 20260905160101 | 84 | 62 | 1.7 | 5.2 | 0.00 | 0.00 | 0.00 | 77 | 1016.5 |
| 20260905160004 | 84 | 156 | 2.6 | 6.1 | 0.00 | 0.00 | 0.00 | 78 | 1016.5 |
| 20260905155902 | 84 | 3 | 1.7 | 6.1 | 0.00 | 0.00 | 0.00 | 79 | 1016.5 |
| 20260905155701 | 83 | 316 | 0.9 | 6.1 | 0.00 | 0.00 | 0.00 | 79 | 1016.5 |
| 20260905155501 | 83 | 74 | 0.9 | 6.1 | 0.00 | 0.00 | 0.00 | 79 | 1016.5 |
| 20260905155300 | 83 | 193 | 0.9 | 6.1 | 0.00 | 0.00 | 0.00 | 79 | 1016.4 |
| 20260905155201 | 83 | 62 | 5.2 | 7.0 | 0.00 | 0.00 | 0.00 | 78 | 1016.4 |
| 20260905155101 | 83 | 157 | 3.5 | 7.0 | 0.00 | 0.00 | 0.00 | 78 | 1016.4 |
| 20260905155001 | 83 | 87 | 1.7 | 7.0 | 0.00 | 0.00 | 0.00 | 78 | 1016.4 |
| 20260905154902 | 83 | 69 | 3.5 | 7.0 | 0.00 | 0.00 | 0.00 | 79 | 1016.4 |
| 20260905154702 | 82 | 85 | 0.9 | 7.0 | 0.00 | 0.00 | 0.00 | 80 | 1016.4 |
| 20260905154602 | 82 | 100 | 2.6 | 7.0 | 0.00 | 0.00 | 0.00 | 79 | 1016.4 |
| 20260905154401 | 82 | 143 | 2.6 | 7.0 | 0.00 | 0.00 | 0.00 | 79 | 1016.4 |
| 20260905154301 | 82 | 62 | 4.3 | 5.2 | 0.00 | 0.00 | 0.00 | 80 | 1016.4 |
| 20260905154101 | 82 | 103 | 0.0 | 4.3 | 0.00 | 0.00 | 0.00 | 80 | 1016.4 |
| 20260905154001 | 82 | 206 | 1.7 | 4.3 | 0.00 | 0.00 | 0.00 | 79 | 1016.3 |
| 20260905153900 | 82 | 283 | 0.9 | 4.3 | 0.00 | 0.00 | 0.00 | 80 | 1016.4 |
| 20260905153601 | 82 | 139 | 1.7 | 6.1 | 0.00 | 0.00 | 0.00 | 81 | 1016.3 |
| 20260905153501 | 82 | 84 | 1.7 | 6.1 | 0.00 | 0.00 | 0.00 | 81 | 1016.3 |
| 20260905153401 | 82 | 122 | 1.7 | 6.1 | 0.00 | 0.00 | 0.00 | 82 | 1016.4 |
| 20260905153301 | 81 | 122 | 1.7 | 6.1 | 0.00 | 0.00 | 0.00 | 81 | 1016.3 |
| 20260905153203 | 81 | 41 | 1.7 | 6.1 | 0.00 | 0.00 | 0.00 | 82 | 1016.3 |
| 20260905153101 | 81 | 8 | 0.9 | 6.1 | 0.00 | 0.00 | 0.00 | 82 | 1016.3 |
| 20260905153001 | 81 | 37 | 0.9 | 6.1 | 0.00 | 0.00 | 0.00 | 81 | 1016.4 |
| 20260905152901 | 81 | 86 | 2.6 | 7.8 | 0.00 | 0.00 | 0.00 | 81 | 1016.3 |
| 20260905152801 | 81 | 117 | 4.3 | 7.8 | 0.00 | 0.00 | 0.00 | 81 | 1016.3 |
| 20260905152701 | 81 | 68 | 4.3 | 7.8 | 0.00 | 0.00 | 0.00 | 81 | 1016.3 |
| 20260905152602 | 81 | 96 | 6.1 | 7.8 | 0.00 | 0.00 | 0.00 | 82 | 1016.3 |
| 20260905152502 | 81 | 288 | 0.0 | 7.8 | 0.00 | 0.00 | 0.00 | 82 | 1016.3 |
| 20260905152401 | 81 | 102 | 5.2 | 7.8 | 0.00 | 0.00 | 0.00 | 82 | 1016.3 |
| 20260905152300 | 81 | 87 | 3.5 | 7.8 | 0.00 | 0.00 | 0.00 | 82 | 1016.3 |
| 20260905152202 | 81 | 141 | 3.5 | 7.8 | 0.00 | 0.00 | 0.00 | 81 | 1016.3 |
| 20260905152001 | 81 | 124 | 4.3 | 7.8 | 0.00 | 0.00 | 0.00 | 82 | 1016.3 |
| 20260905151901 | 81 | 77 | 2.6 | 6.1 | 0.00 | 0.00 | 0.00 | 82 | 1016.3 |
| 20260905151805 | 81 | 85 | 3.5 | 6.1 | 0.00 | 0.00 | 0.00 | 83 | 1016.3 |
| 20260905151601 | 80 | 89 | 1.7 | 6.1 | 0.00 | 0.00 | 0.00 | 82 | 1016.3 |
| 20260905151502 | 80 | 8 | 2.6 | 6.1 | 0.00 | 0.00 | 0.00 | 84 | 1016.2 |
| 20260905151401 | 80 | 96 | 0.0 | 6.1 | 0.00 | 0.00 | 0.00 | 83 | 1016.2 |
| 20260905151302 | 80 | 325 | 0.9 | 6.1 | 0.00 | 0.00 | 0.00 | 84 | 1016.2 |
| 20260905151101 | 80 | 88 | 1.7 | 6.1 | 0.00 | 0.00 | 0.00 | 84 | 1016.2 |
| 20260905151001 | 80 | 86 | 0.9 | 6.1 | 0.00 | 0.00 | 0.00 | 84 | 1016.2 |
| 20260905150901 | 80 | 290 | 0.0 | 6.1 | 0.00 | 0.00 | 0.00 | 85 | 1016.1 |
| 20260905150801 | 80 | 360 | 0.9 | 6.1 | 0.00 | 0.00 | 0.00 | 85 | 1016.2 |
| 20260905150702 | 79 | 16 | 3.5 | 6.1 | 0.00 | 0.00 | 0.00 | 84 | 1016.1 |
| 20260905150601 | 79 | 158 | 2.6 | 6.1 | 0.00 | 0.00 | 0.00 | 84 | 1016.1 |
| 20260905150505 | 79 | 98 | 2.6 | 6.1 | 0.00 | 0.00 | 0.00 | 85 | 1016.1 |
| 20260905150401 | 79 | 8 | 0.9 | 4.3 | 0.00 | 0.00 | 0.00 | 85 | 1016.1 |
| 20260905150302 | 79 | 238 | 0.0 | 4.3 | 0.00 | 0.00 | 0.00 | 85 | 1016.2 |
| 20260905145900 | 79 | 13 | 0.0 | 4.3 | 0.00 | 0.00 | 0.00 | 87 | 1016.1 |
| 20260905145800 | 78 | 41 | 0.9 | 3.5 | 0.00 | 0.00 | 0.00 | 87 | 1016.1 |
| 20260905145700 | 78 | 71 | 1.7 | 3.5 | 0.00 | 0.00 | 0.00 | 86 | 1016.0 |
| 20260905145501 | 78 | 359 | 0.9 | 3.5 | 0.00 | 0.00 | 0.00 | 86 | 1016.0 |
| 20260905145259 | 78 | 86 | 0.9 | 5.2 | 0.00 | 0.00 | 0.00 | 86 | 1016.1 |
| 20260905145201 | 78 | 207 | 0.0 | 6.1 | 0.00 | 0.00 | 0.00 | 86 | 1016.0 |
| 20260905145100 | 78 | 63 | 0.0 | 6.1 | 0.00 | 0.00 | 0.00 | 86 | 1016.0 |
| 20260905145001 | 78 | 334 | 0.9 | 6.1 | 0.00 | 0.00 | 0.00 | 86 | 1016.0 |
| 20260905144900 | 78 | 6 | 0.9 | 6.1 | 0.00 | 0.00 | 0.00 | 88 | 1015.9 |
| 20260905144759 | 78 | 106 | 0.0 | 7.0 | 0.00 | 0.00 | 0.00 | 88 | 1015.9 |
| 20260905144701 | 78 | 86 | 0.9 | 7.0 | 0.00 | 0.00 | 0.00 | 87 | 1015.9 |
| 20260905144601 | 78 | 134 | 0.9 | 7.0 | 0.00 | 0.00 | 0.00 | 88 | 1015.9 |
| 20260905144501 | 78 | 105 | 1.7 | 7.0 | 0.00 | 0.00 | 0.00 | 88 | 1015.8 |
| 20260905144400 | 78 | 91 | 5.2 | 7.0 | 0.00 | 0.00 | 0.00 | 88 | 1015.9 |
| 20260905144301 | 78 | 89 | 3.5 | 7.0 | 0.00 | 0.00 | 0.00 | 88 | 1015.8 |
| 20260905144100 | 77 | 109 | 4.3 | 7.8 | 0.00 | 0.00 | 0.00 | 88 | 1015.9 |
| 20260905143900 | 77 | 66 | 2.6 | 7.8 | 0.00 | 0.00 | 0.00 | 89 | 1015.9 |
| 20260905143803 | 77 | 61 | 1.7 | 7.8 | 0.00 | 0.00 | 0.00 | 89 | 1015.9 |
| 20260905143700 | 77 | 171 | 2.6 | 7.8 | 0.00 | 0.00 | 0.00 | 89 | 1015.9 |
| 20260905143600 | 77 | 102 | 0.9 | 7.8 | 0.00 | 0.00 | 0.00 | 89 | 1015.9 |
| 20260905143500 | 76 | 89 | 5.2 | 7.8 | 0.00 | 0.00 | 0.00 | 89 | 1015.9 |
| 20260905143401 | 76 | 94 | 5.2 | 7.8 | 0.00 | 0.00 | 0.00 | 89 | 1015.8 |
| 20260905143300 | 76 | 133 | 3.5 | 7.8 | 0.00 | 0.00 | 0.00 | 89 | 1015.9 |
| 20260905143200 | 76 | 129 | 3.5 | 7.8 | 0.00 | 0.00 | 0.00 | 89 | 1015.9 |
| 20260905143101 | 76 | 217 | 2.6 | 7.8 | 0.00 | 0.00 | 0.00 | 89 | 1015.9 |
| 20260905142959 | 76 | 126 | 4.3 | 7.0 | 0.00 | 0.00 | 0.00 | 90 | 1015.9 |
| 20260905142900 | 76 | 321 | 0.0 | 7.0 | 0.00 | 0.00 | 0.00 | 90 | 1015.9 |
| 20260905142800 | 76 | 117 | 3.5 | 7.0 | 0.00 | 0.00 | 0.00 | 90 | 1015.9 |
| 20260905142700 | 76 | 328 | 1.7 | 7.0 | 0.00 | 0.00 | 0.00 | 90 | 1015.9 |
| 20260905142600 | 76 | 85 | 3.5 | 7.0 | 0.00 | 0.00 | 0.00 | 90 | 1015.8 |
| 20260905142459 | 76 | 120 | 1.7 | 6.1 | 0.00 | 0.00 | 0.00 | 90 | 1015.9 |
| 20260905142400 | 76 | 67 | 5.2 | 6.1 | 0.00 | 0.00 | 0.00 | 90 | 1015.9 |
| 20260905142300 | 76 | 77 | 3.5 | 6.1 | 0.00 | 0.00 | 0.00 | 91 | 1015.9 |
| 20260905142200 | 76 | 88 | 1.7 | 6.1 | 0.00 | 0.00 | 0.00 | 90 | 1016.0 |
| 20260905142100 | 76 | 87 | 4.3 | 7.8 | 0.00 | 0.00 | 0.00 | 90 | 1016.0 |
| 20260905142000 | 76 | 98 | 3.5 | 7.8 | 0.00 | 0.00 | 0.00 | 91 | 1016.0 |
| 20260905141859 | 76 | 103 | 1.7 | 7.8 | 0.00 | 0.00 | 0.00 | 91 | 1016.0 |
| 20260905141802 | 76 | 132 | 0.9 | 7.8 | 0.00 | 0.00 | 0.00 | 91 | 1015.9 |
| 20260905141700 | 76 | 334 | 0.0 | 7.8 | 0.00 | 0.00 | 0.00 | 91 | 1015.9 |
| 20260905141602 | 76 | 146 | 2.6 | 7.8 | 0.00 | 0.00 | 0.00 | 91 | 1015.9 |
| 20260905141500 | 76 | 107 | 0.9 | 8.7 | 0.00 | 0.00 | 0.00 | 91 | 1015.9 |
| 20260905141400 | 76 | 79 | 5.2 | 8.7 | 0.00 | 0.00 | 0.00 | 90 | 1015.9 |
| 20260905141300 | 76 | 95 | 6.1 | 8.7 | 0.00 | 0.00 | 0.00 | 91 | 1015.8 |
| 20260905141159 | 76 | 128 | 1.7 | 8.7 | 0.00 | 0.00 | 0.00 | 90 | 1015.9 |
| 20260905141100 | 76 | 123 | 3.5 | 8.7 | 0.00 | 0.00 | 0.00 | 91 | 1015.9 |
| 20260905140959 | 76 | 138 | 1.7 | 8.7 | 0.00 | 0.00 | 0.00 | 90 | 1015.8 |
| 20260905140904 | 76 | 75 | 3.5 | 8.7 | 0.00 | 0.00 | 0.00 | 90 | 1015.8 |
| 20260905140600 | 76 | 138 | 1.7 | 7.8 | 0.00 | 0.00 | 0.00 | 90 | 1015.7 |
| 20260905140500 | 76 | 115 | 1.7 | 7.8 | 0.00 | 0.00 | 0.00 | 90 | 1015.8 |
| 20260905140400 | 77 | 100 | 5.2 | 7.8 | 0.00 | 0.00 | 0.00 | 90 | 1015.7 |
| 20260905140303 | 77 | 101 | 3.5 | 7.8 | 0.00 | 0.00 | 0.00 | 89 | 1015.7 |
| 20260905140159 | 77 | 86 | 2.6 | 7.8 | 0.00 | 0.00 | 0.00 | 89 | 1015.7 |
| 20260905140100 | 77 | 56 | 3.5 | 4.3 | 0.00 | 0.00 | 0.00 | 89 | 1015.7 |
| 20260905140000 | 77 | 39 | 1.7 | 4.3 | 0.00 | 0.00 | 0.00 | 90 | 1015.6 |
| 20260905135902 | 77 | 238 | 0.0 | 5.2 | 0.00 | 0.00 | 0.00 | 89 | 1015.6 |
| 20260905135804 | 77 | 94 | 0.0 | 6.1 | 0.00 | 0.00 | 0.00 | 89 | 1015.6 |
| 20260905135702 | 77 | 347 | 1.7 | 7.0 | 0.00 | 0.00 | 0.00 | 89 | 1015.6 |
| 20260905135603 | 77 | 101 | 1.7 | 7.0 | 0.00 | 0.00 | 0.00 | 89 | 1015.6 |
| 20260905135402 | 78 | 90 | 0.0 | 7.0 | 0.00 | 0.00 | 0.00 | 89 | 1015.5 |
| 20260905135301 | 78 | 16 | 0.9 | 7.0 | 0.00 | 0.00 | 0.00 | 89 | 1015.6 |
| 20260905135201 | 78 | 89 | 0.9 | 7.0 | 0.00 | 0.00 | 0.00 | 89 | 1015.5 |
| 20260905135101 | 78 | 86 | 0.9 | 7.0 | 0.00 | 0.00 | 0.00 | 88 | 1015.5 |
| 20260905134801 | 78 | 116 | 0.0 | 7.0 | 0.00 | 0.00 | 0.00 | 88 | 1015.4 |
| 20260905134601 | 78 | 121 | 3.5 | 7.0 | 0.00 | 0.00 | 0.00 | 89 | 1015.4 |
| 20260905134501 | 78 | 81 | 2.6 | 7.0 | 0.00 | 0.00 | 0.00 | 89 | 1015.5 |
| 20260905134301 | 78 | 23 | 1.7 | 7.0 | 0.00 | 0.00 | 0.00 | 89 | 1015.4 |
| 20260905134201 | 78 | 39 | 1.7 | 7.0 | 0.00 | 0.00 | 0.00 | 89 | 1015.4 |
| 20260905134102 | 78 | 119 | 0.0 | 7.0 | 0.00 | 0.00 | 0.00 | 89 | 1015.4 |
| 20260905133901 | 78 | 83 | 4.3 | 7.0 | 0.00 | 0.00 | 0.00 | 88 | 1015.5 |
| 20260905133701 | 79 | 105 | 4.3 | 7.0 | 0.00 | 0.00 | 0.00 | 88 | 1015.4 |
| 20260905133601 | 79 | 142 | 0.9 | 7.0 | 0.00 | 0.00 | 0.00 | 88 | 1015.2 |
| 20260905133502 | 79 | 139 | 0.9 | 6.1 | 0.00 | 0.00 | 0.00 | 88 | 1015.3 |
| 20260905133402 | 79 | 106 | 1.7 | 4.3 | 0.00 | 0.00 | 0.00 | 89 | 1015.3 |
| 20260905133301 | 79 | 91 | 4.3 | 4.3 | 0.00 | 0.00 | 0.00 | 90 | 1015.3 |
| 20260905133201 | 78 | 345 | 0.0 | 2.6 | 0.00 | 0.00 | 0.00 | 89 | 1015.3 |
| 20260905133101 | 78 | 126 | 0.9 | 2.6 | 0.00 | 0.00 | 0.00 | 89 | 1015.4 |
| 20260905133001 | 78 | 188 | 1.7 | 2.6 | 0.00 | 0.00 | 0.00 | 89 | 1015.4 |
| 20260905132901 | 78 | 36 | 0.0 | 2.6 | 0.00 | 0.00 | 0.00 | 89 | 1015.4 |
| 20260905132801 | 78 | 26 | 0.9 | 2.6 | 0.00 | 0.00 | 0.00 | 89 | 1015.4 |
| 20260905132703 | 78 | 25 | 1.7 | 2.6 | 0.00 | 0.00 | 0.00 | 90 | 1015.4 |
| 20260905132601 | 78 | 288 | 0.0 | 2.6 | 0.00 | 0.00 | 0.00 | 90 | 1015.3 |
| 20260905132501 | 78 | 324 | 0.0 | 2.6 | 0.00 | 0.00 | 0.00 | 90 | 1015.3 |
| 20260905132402 | 78 | 136 | 0.0 | 2.6 | 0.00 | 0.00 | 0.00 | 90 | 1015.3 |
| 20260905132301 | 78 | 124 | 0.9 | 3.5 | 0.00 | 0.00 | 0.00 | 90 | 1015.5 |
| 20260905132201 | 78 | 86 | 0.0 | 3.5 | 0.00 | 0.00 | 0.00 | 90 | 1015.5 |
| 20260905132101 | 78 | 81 | 1.7 | 3.5 | 0.00 | 0.00 | 0.00 | 90 | 1015.6 |
| 20260905131900 | 78 | 317 | 0.0 | 3.5 | 0.00 | 0.00 | 0.00 | 90 | 1015.6 |
| 20260905131802 | 78 | 27 | 0.9 | 3.5 | 0.00 | 0.00 | 0.00 | 90 | 1015.7 |
| 20260905131701 | 78 | 83 | 0.0 | 3.5 | 0.00 | 0.00 | 0.00 | 91 | 1015.7 |
| 20260905131601 | 78 | 37 | 0.0 | 3.5 | 0.00 | 0.00 | 0.00 | 90 | 1015.7 |
| 20260905131502 | 78 | 7 | 0.9 | 3.5 | 0.00 | 0.00 | 0.00 | 91 | 1015.7 |
| 20260905131401 | 78 | 17 | 0.9 | 2.6 | 0.00 | 0.00 | 0.00 | 91 | 1015.8 |
| 20260905131302 | 78 | 94 | 0.9 | 2.6 | 0.00 | 0.00 | 0.00 | 92 | 1015.7 |
| 20260905131201 | 78 | 340 | 0.0 | 2.6 | 0.00 | 0.00 | 0.00 | 92 | 1015.8 |
| 20260905131101 | 77 | 337 | 0.0 | 2.6 | 0.00 | 0.00 | 0.00 | 91 | 1015.8 |